     2              OBSERVATION DATA    GPS                 RINEX VERSION / TYPE
teqc 2000Feb29 Duncan Agnew 20000707 21:03:23UTC            PGM / RUN BY / DATE
                                                            COMMENT
L2: 1 -> 1; 5 -> 5; 60 -> 9                                 COMMENT
L2: 1 -> 1; 5 -> 5; 60 -> 9                                 COMMENT
L2: 1 -> 1; 5 -> 5; 60 -> 9                                 COMMENT
L2: 1 -> 1; 5 -> 5; 60 -> 9                                 COMMENT
L2: 1 -> 1; 5 -> 5; 60 -> 9                                 COMMENT
Original Marker Name: 6491                                  COMMENT
Campaign Name: USMC MCAGCC                                  COMMENT
4-Character Station Name: ELII                              COMMENT
6-Character Antenna Code: TRMSST                            COMMENT
Vertical Measurement Point: BGP                             COMMENT
Vertical Offset to Rinex Ref. Point: 0.0597                 COMMENT
Radial Measurement Point: NGP                               COMMENT
Radial Offset to Rinex Ref. Point: 0.2334                   COMMENT
Antenna Height from Field Measurement: 1.3390 m             COMMENT
Additional Antenna Identification Info.:                    COMMENT
Model 14532.00                                              COMMENT
Original XYZ: -2305647.2787 -4728414.3050 3595003.2707      COMMENT
New XYZ position is based on association with SCEC monument COMMENT
E1F2L2E1+0011. Position of that monument is believed to be  COMMENT
valid to within 1 m horizontally; vertical accuracy         COMMENT
should be no worse than 3-times this value.                 COMMENT
                                                            COMMENT
Revised Rinex header created by UCSD GPS archive for        COMMENT
GSAC on 18-Sep-2001 (2001:261) 21:13:55 GMT                 COMMENT
For assistance contact dagnew@ucsd.edu                      COMMENT
or anderson@python.ucsd.edu                                 COMMENT
                                                            COMMENT
ELI II                                                      MARKER NAME
____0001                                                    MARKER NUMBER
-Unknown- 11TH ARTILLERY US MARINE CORPS                    OBSERVER / AGENCY
16491 TRIMBLE MSGR NP 7.57; SP 3.53                         REC # / TYPE / VERS
S/N UNKNOWN TR 4000SST L1/L2 GEO                            ANT # / TYPE
 -2305647.5697 -4728415.7768  3595003.1433                  APPROX POSITION XYZ
        1.2588        0.0000        0.0000                  ANTENNA: DELTA H/E/N
     1     1     0                                          WAVELENGTH FACT L1/2
     6    L1    L2    P1    P2    S1    S2                  # / TYPES OF OBSERV
     0                                                      INTERVAL
  1999     3     2    20     0   15.000000                  TIME OF FIRST OBS
  1999     3     2    20    45   15.000000                  TIME OF LAST OBS
                                                            END OF HEADER
 99  3  2 20  0 15.0000000  0  6G 2G 7G26G 4G 9G27
  33728962.78016  26270380.98416  21355338.617    21355347.465          19.500
        18.250
  22002677.15616  17144955.49916  20312499.906    20312508.449          17.500
        19.500
  23973971.03315  18671140.92615  22933554.078    22933563.840          10.000
        11.750
   1411597.92214   1093151.97115  23324268.563    23324282.016           7.250
         8.750
   1556333.13013   1204977.07215  23827910.359    23827921.289           6.000
         6.750
  41416409.81216  32270683.43816  21833467.789    21833477.902          13.250
        14.500
 99  3  2 20  0 30.0000000  0  6G 2G 7G26G 4G 9G27
  33814365.201 6  26336928.321 6  21371590.203    21371598.848          19.250
        18.000
  22083188.049 6  17207691.276 6  20327820.531    20327829.047          17.750
        19.500
  24063909.618 5  18741222.920 5  22950668.570    22950678.531          10.000
        11.750
   1435511.574 4   1111786.123 5  23328819.094    23328832.254           7.250
         8.250
   1584149.350 4   1226652.101 5  23833204.227    23833214.504           6.250
         7.000
  41535840.266 6  32363746.080 6  21856194.797    21856204.863          13.500
        14.250
 99  3  2 20  0 45.0000000  4  2
0.000                                                       COMMENT
1.339                                                       COMMENT
 99  3  2 20  0 45.0000000  0  6G 2G 7G26G 4G 9G27
  33899831.870 6  26403525.717 6  21387853.953    21387862.852          19.250
        18.250
  22163821.545 6  17270522.570 6  20343164.570    20343173.074          17.750
        19.500
  24153988.359 5  18811414.122 5  22967810.297    22967819.813          10.000
        11.750
   1459475.102 4   1130459.136 5  23333379.305    23333392.391           7.250
         8.250
   1612017.254 4   1248367.356 5  23838507.414    23838515.668           6.250
         6.250
  41655391.112 6  32456902.523 6  21878944.586    21878954.770          13.500
        14.250
 99  3  2 20  1  0.0000000  0  6G 2G 7G26G 4G 9G27
  33985351.552 6  26470164.422 6  21404127.797    21404136.629          19.000
        18.000
  22244565.603 6  17333440.022 6  20358529.500    20358538.051          17.750
        19.500
  24244194.096 5  18881704.295 6  22984975.734    22984985.699          10.000
        12.250
   1483476.119 5   1149161.361 5  23337946.328    23337959.652           7.500
         8.750
   1639919.599 3   1270109.507 5  23843816.266    23843826.598           6.000
         6.750
  41775050.592 6  32550143.629 6  21901715.164    21901725.430          13.250
        14.000
 99  3  2 20  1 15.0000000  0  6G 2G 7G26G 4G 9G27
  34070895.557 6  26536822.077 6  21420406.258    21420415.164          18.750
        18.250
  22325386.892 6  17396417.659 6  20373909.461    20373917.902          17.750
        19.250
  24334496.904 5  18952070.095 6  23002159.742    23002169.797           9.750
        12.250
   1507483.610 5   1167868.627 5  23342514.922    23342528.301           7.500
         9.000
   1667827.583 4   1291856.016 5  23849127.063    23849137.746           6.250
         6.750
  41894787.797 6  32643445.291 6  21924500.297    21924510.648          13.250
        13.500
 99  3  2 20  1 30.0000000  0  6G 2G 7G26G 4G 9G27
  34156463.401 6  26603498.314 6  21436689.297    21436698.234          18.750
        18.250
  22406283.179 6  17459453.727 6  20389303.547    20389312.055          17.750
        19.500
  24424889.943 5  19022506.218 6  23019361.055    23019370.996           9.750
        12.250
   1531492.304 5   1186576.822 5  23347083.438    23347096.629           7.500
         8.750
   1695737.503 3   1313604.030 5  23854437.586    23854446.805           6.000
         6.250
  42014598.286 6  32736804.057 6  21947299.633    21947309.883          13.500
        13.250
 99  3  2 20  1 45.0000000  0  6G 2G 7G26G 4G 9G27
  34242073.638 6  26670207.577 6  21452980.359    21452989.320          19.250
        18.000
  22487276.141 6  17522565.138 6  20404716.023    20404724.617          17.750
        19.500
  24515387.753 5  19093023.973 5  23036582.133    23036592.035          10.000
        11.750
   1555517.574 5   1205297.955 5  23351655.008    23351668.262           7.750
         8.750
   1723667.757 4   1335367.931 5  23859753.094    23859763.969           6.250
         7.000
  42134499.293 6  32830233.361 6  21970116.078    21970126.371          13.500
        13.500
 99  3  2 20  2  0.0000000  0  6G 2G 7G26G 4G 9G27
  34327726.879 6  26736950.350 6  21469279.625    21469288.555          19.000
        18.000
  22568371.040 6  17585755.967 6  20420147.938    20420156.355          18.000
        19.500
  24605994.876 5  19163626.904 5  23053824.188    23053833.848          10.000
        11.750
   1579562.260 5   1224034.204 5  23356230.305    23356243.508           7.750
         8.750
   1751626.103 3   1357153.690 5  23865072.008    23865084.266           6.000
         7.250
  42254495.472 6  32923736.816 6  21992950.703    21992960.867          13.500
        13.500
 99  3  2 20  2 15.0000000  0  6G 2G 7G26G 4G 9G27
  34413422.425 6  26803726.086 6  21485586.922    21485595.914          19.000
        18.250
  22649568.823 6  17649026.971 6  20435599.438    20435607.828          18.000
        19.500
  24696711.120 5  19234314.862 6  23071086.781    23071096.688           9.750
        12.000
   1603627.135 5   1242786.180 5  23360809.773    23360822.863           7.750
         8.750
   1779619.954 4   1378967.109 5  23870400.523    23870408.891           6.250
         6.250
  42374589.390 6  33017316.434 6  22015803.773    22015814.012          13.500
        13.250
 99  3  2 20  2 30.0000000  0  6G 2G 7G26G 4G 9G27
  34499153.857 6  26870529.791 6  21501900.961    21501909.891          19.000
        18.000
  22730866.005 6  17712375.425 6  20451069.805    20451078.156          18.000
        19.750
  24787532.765 5  19305084.948 6  23088369.594    23088379.473          10.000
        12.250
   1627709.623 5   1261551.884 5  23365392.469    23365405.617           7.750
         8.750
   1807647.556 3   1400806.814 5  23875733.070    23875744.574           6.000
         6.750
  42494774.683 6  33110967.249 6  22038674.352    22038684.438          13.500
        13.250
 99  3  2 20  2 45.0000000  0  6G 2G 7G26G 4G 9G27
  34584921.205 6  26937361.474 6  21518222.148    21518231.211          18.750
        18.250
  22812263.199 6  17775801.820 6  20466559.109    20466567.527          18.000
        19.750
  24878458.478 5  19375936.134 6  23105672.313    23105682.262           9.750
        12.250
   1651809.697 5   1280331.288 5  23369978.445    23369991.578           7.750
         9.000
   1835707.890 4   1422672.084 5  23881073.563    23881084.156           6.250
         7.250
  42615046.149 6  33204685.216 6  22061561.469    22061571.633          13.250
        13.250
 99  3  2 20  3  0.0000000  0  6G 2G 7G26G 4G 9G27
  34670726.535 6  27004222.760 6  21534550.391    21534559.391          19.000
        18.000
  22893759.278 6  17839305.258 6  20482067.180    20482075.539          18.000
        19.750
  24969485.807 5  19446866.504 6  23122994.281    23123004.453          10.000
        12.250
   1675931.548 5   1299127.661 5  23374568.609    23374581.664           7.750
         9.000
   1863801.708 4   1444563.389 5  23886419.234    23886428.957           6.250
         6.500
  42735400.211 6  33298467.537 6  22084463.898    22084474.289          13.250
        13.000
 99  3  2 20  3 15.0000000  0  6G 2G 7G26G 4G 9G27
  34756576.761 6  27071119.036 6  21550887.086    21550896.266          19.000
        18.250
  22975353.868 6  17902885.462 6  20497594.023    20497602.359          18.000
        19.750
  25060617.603 5  19517878.271 6  23140335.945    23140346.297           9.750
        12.250
   1700080.937 5   1317945.493 5  23379163.953    23379177.027           7.750
         9.000
   1891937.832 3   1466487.664 5  23891773.039    23891784.441           6.000
         7.250
  42855841.199 6  33392317.599 6  22107383.266    22107393.449          13.250
        13.000
 99  3  2 20  3 30.0000000  0  6G 2G 7G26G 4G 9G27
  34842469.285 6  27138048.258 6  21567231.875    21567241.102          18.750
        18.250
  23057043.791 6  17966539.949 6  20513139.188    20513147.543          18.000
        19.750
  25151852.669 5  19588970.508 6  23157697.469    23157707.750           9.750
        12.250
   1724256.342 5   1336783.598 5  23383764.406    23383777.148           7.750
         9.000
   1920117.996 3   1488446.284 5  23897134.516    23897145.941           6.000
         6.750
  42976367.314 6  33486233.989 6  22130318.547    22130328.926          12.750
        12.750
 99  3  2 20  3 45.0000000  0  6G 2G 7G26G 4G 9G27
  34928411.580 6  27205016.275 6  21583586.180    21583595.336          18.750
        18.250
  23138838.901 6  18030276.403 6  20528704.328    20528712.727          18.000
        19.750
  25243202.001 5  19660151.786 6  23175080.711    23175091.047           9.750
        12.250
   1748467.202 5   1355649.326 5  23388371.477    23388384.277           7.750
         9.250
   1948353.009 4   1510447.638 5  23902508.516    23902519.039           6.250
         6.750
  43096990.490 6  33580226.013 6  22153272.281    22153282.832          12.750
        12.750
 99  3  2 20  4  0.0000000  0  6G 2G 7G26G 4G 9G27
  35014388.339 6  27272011.145 6  21599947.086    21599956.297          18.750
        18.250
  23220725.699 6  18094084.299 6  20544286.805    20544295.227          18.000
        19.750
  25334657.744 5  19731415.969 6  23192484.094    23192494.625           9.750
        12.250
   1772703.125 5   1374534.593 5  23392983.352    23392996.285           7.750
         9.250
   1976632.905 4   1532483.946 5  23907890.875    23907900.828           6.250
         7.250
  43217700.346 6  33674285.582 6  22176242.789    22176253.129          12.750
        12.750
 99  3  2 20  4 15.0000000  0  6G 2G 7G26G 4G 9G27
  35100396.995 6  27339030.861 6  21616314.039    21616323.195          19.000
        18.500
  23302699.612 6  18157960.078 6  20559886.016    20559894.453          17.750
        19.750
  25426219.777 5  19802762.989 6  23209907.891    23209918.309           9.750
        12.250
   1796961.759 5   1393437.552 5  23397599.375    23397612.430           7.750
         9.250
   2004955.017 4   1554553.160 5  23913280.102    23913290.098           6.500
         7.250
  43338493.584 6  33768410.112 6  22199228.922    22199239.332          12.750
        12.750
 99  3  2 20  4 30.0010000  0  6G 2G 7G26G 4G 9G27
  35186450.183 6  27406085.288 6  21632689.435    21632698.634          19.000
        18.250
  23384771.182 6  18221911.949 6  20575503.638    20575512.165          18.000
        20.000
  25517902.189 5  19874203.815 6  23227354.677    23227364.837          10.000
        12.250
   1821250.664 5   1412364.091 5  23402221.356    23402234.329           8.000
         9.250
   2033325.368 3   1576659.963 5  23918677.638    23918688.962           6.000
         7.000
  43459381.992 6  33862608.813 6  22222233.146    22222243.692          12.500
        12.750
 99  3  2 20  4 45.0010000  0  6G 2G 7G26G 4G 9G27
  35272535.109 6  27473164.440 6  21649070.841    21649079.958          19.000
        18.500
  23466931.218 6  18285932.754 6  20591138.200    20591146.681          17.750
        20.000
  25609693.951 5  19945729.833 6  23244821.997    23244832.138          10.000
        12.000
   1845566.154 5   1431311.356 5  23406848.356    23406861.259           8.000
         9.500
   2061735.213 4   1598797.540 5  23924084.442    23924094.540           6.250
         6.750
  43580349.114 6  33956868.836 6  22245252.599    22245263.181          12.500
        12.750
 99  3  2 20  5  0.0010000  0  6G 2G 7G26G 4G 9G27
  35358659.270 6  27540274.168 6  21665459.669    21665468.774          19.000
        18.500
  23549183.302 6  18350025.289 6  20606790.263    20606798.786          17.750
        20.000
  25701600.502 5  20017345.293 6  23262311.255    23262321.032          10.000
        12.000
   1869910.146 5   1450280.835 5  23411480.708    23411493.313           7.750
         9.500
   2090187.585 3   1620968.275 5  23929498.169    23929509.044           6.000
         7.250
  43701407.295 6  34051199.821 6  22268289.317    22268299.923          12.500
        12.750
 99  3  2 20  5 15.0010000  0  6G 2G 7G26G 4G 9G27
  35444821.915 6  27607413.883 6  21681855.903    21681865.103          19.000
        18.500
  23631524.550 6  18414187.309 6  20622459.161    20622467.720          17.750
        20.000
  25793621.206 5  20089049.715 5  23279821.989    23279831.981           9.750
        11.750
   1894281.904 5   1469271.943 5  23416118.474    23416131.364           8.000
         9.500
   2118685.705 4   1643174.610 5  23934922.192    23934931.454           6.500
         7.000
  43822559.340 6  34145603.947 6  22291343.794    22291354.411          12.250
        12.750
 99  3  2 20  5 30.0010000  0  6G 2G 7G26G 4G 9G27
  35531020.556 6  27674581.648 6  21698258.989    21698268.204          19.250
        18.500
  23713954.424 6  18478418.374 6  20638144.997    20638153.544          17.750
        20.000
  25885753.184 5  20160840.850 5  23297354.192    23297364.216           9.750
        11.750
   1918675.806 5   1488280.301 5  23420760.302    23420773.146           8.000
         9.500
   2147226.951 4   1665414.601 5  23940353.372    23940364.130           6.500
         7.750
  43943802.677 6  34240079.210 6  22314415.567    22314426.259          12.250
        12.750
 99  3  2 20  5 45.0010000  0  6G 2G 7G26G 4G 9G27
  35617260.015 6  27741781.220 6  21714669.786    21714679.032          19.250
        18.250
  23796479.900 6  18542723.944 6  20653849.099    20653857.638          17.750
        20.000
  25978000.179 5  20232721.589 5  23314908.138    23314918.247           9.750
        11.750
   1943093.377 5   1507307.103 5  23425406.622    23425419.345           7.750
         9.500
   2175813.822 4   1687690.128 5  23945792.505    23945802.935           6.500
         7.250
  44065138.617 6  34334626.634 6  22337505.231    22337515.938          12.250
        12.750
 99  3  2 20  6  0.0010000  0  6G 2G 7G26G 4G 9G27
  35703541.171 6  27809013.279 6  21731088.646    21731097.825          19.250
        18.500
  23879102.928 6  18607105.524 6  20669571.700    20669580.278          17.750
        20.000
  26070360.954 5  20304691.009 5  23332483.685    23332493.774           9.500
        11.750
   1967534.752 5   1526352.464 5  23430057.646    23430070.294           8.000
         9.500
   2204444.832 4   1710000.033 5  23951240.856    23951251.220           6.500
         7.250
  44186566.315 6  34429245.550 6  22360612.114    22360622.853          12.250
        12.750
 99  3  2 20  6 15.0010000  0  6G 2G 7G26G 4G 9G27
  35789862.749 6  27876276.841 6  21747514.919    21747524.083          19.000
        18.250
  23961818.907 6  18671559.531 6  20685311.903    20685320.380          18.000
        20.000
  26162831.712 5  20376746.112 5  23350080.458    23350090.489           9.500
        11.750
   1991997.697 5   1545414.616 5  23434712.599    23434725.470           8.000
         9.750
   2233113.892 4   1732339.610 5  23956696.638    23956708.130           6.500
         7.750
  44308080.045 6  34523931.508 6  22383735.583    22383746.138          12.250
        12.750
 99  3  2 20  6 30.0010000  0  6G 2G 7G26G 4G 9G27
  35876228.099 6  27943574.502 6  21763949.771    21763958.915          19.250
        18.250
  24044630.762 6  18736088.244 6  20701070.669    20701079.091          18.000
        20.000
  26255411.877 5  20448886.474 5  23367697.997    23367708.146           9.500
        11.750
   2016486.186 5   1564496.673 5  23439372.341    23439385.196           8.000
         9.750
   2261822.096 4   1754709.688 5  23962159.911    23962169.149           6.500
         7.250
  44429679.920 6  34618684.593 6  22406875.419    22406886.005          12.500
        12.750
 99  3  2 20  6 45.0010000  0  6G 2G 7G26G 4G 9G27
  35962641.439 6  28010909.567 6  21780393.716    21780402.845          19.250
        18.250
  24127543.351 6  18800695.458 6  20716848.497    20716856.896          18.000
        20.000
  26348102.575 5  20521112.960 5  23385336.403    23385346.532           9.500
        11.750
   2041006.990 5   1583603.924 5  23444038.677    23444051.536           8.000
         9.750
   2290574.666 4   1777114.306 5  23967630.786    23967641.673           6.500
         7.500
  44551370.276 6  34713508.181 6  22430032.255    22430042.860          12.500
        12.750
 99  3  2 20  7  0.0010000  0  6G 2G 7G26G 4G 9G27
  36049105.060 6  28078283.809 6  21796847.271    21796856.513          19.250
        18.250
  24210557.130 6  18865381.520 6  20732645.528    20732653.989          18.000
        20.000
  26440904.210 5  20593425.890 5  23402996.294    23403006.161           9.500
        11.500
   2065564.099 5   1602739.449 5  23448711.583    23448723.923           8.000
         9.750
   2319374.306 4   1799555.645 5  23973111.810    23973122.083           6.750
         7.750
  44673151.237 6  34808402.380 6  22453206.505    22453217.325          12.250
        12.750
 99  3  2 20  7 15.0010000  0  6G 2G 7G26G 4G 9G27
  36135613.539 6  28145693.010 6  21813309.231    21813318.231          19.250
        18.250
  24293662.848 6  18930139.225 6  20748459.966    20748468.411          18.000
        20.250
  26533809.760 5  20665819.799 5  23420675.552    23420685.536           9.500
        11.500
   2090152.813 5   1621899.609 5  23453390.427    23453403.235           8.000
         9.750
   2348217.205 4   1822030.655 5  23978599.724    23978609.665           6.750
         7.250
  44795014.920 6  34903361.016 6  22476396.435    22476406.974          12.500
        12.750
 99  3  2 20  7 30.0010000  0  6G 2G 7G26G 4G 9G27
  36222165.949 6  28213136.438 6  21829779.692    21829788.712          19.250
        18.250
  24376860.782 6  18994968.781 6  20764292.005    20764300.524          18.000
        20.250
  26626817.938 5  20738293.671 5  23438374.411    23438384.474           9.500
        11.750
   2114771.482 5   1641083.099 5  23458075.138    23458088.087           8.000
         9.750
   2377101.253 4   1844537.741 5  23984095.708    23984106.911           6.500
         7.750
  44916957.059 6  34998380.801 6  22499601.333    22499611.946          12.500
        12.750
 99  3  2 20  7 45.0010000  0  6G 2G 7G26G 4G 9G27
  36308769.530 6  28280619.743 6  21846259.849    21846268.911          19.250
        18.250
  24460156.005 6  19059874.151 6  20780142.653    20780151.095          18.000
        20.250
  26719936.903 5  20810853.887 5  23456094.403    23456104.649           9.500
        11.500
   2139427.265 5   1660295.518 5  23462766.958    23462779.423           8.000
         9.750
   2406028.198 4   1867078.258 5  23989600.919    23989611.044           7.000
         7.500
  45038982.319 6  35093465.364 6  22522822.067    22522832.673          12.250
        12.500
 99  3  2 20  8  0.0010000  0  6G 2G 7G26G 4G 9G27
  36395417.421 6  28348137.572 6  21862748.388    21862757.282          19.250
        18.000
  24543542.137 6  19124850.353 6  20796010.536    20796018.985          18.000
        20.250
  26813163.884 5  20883498.250 5  23473834.849    23473845.224           9.500
        11.750
   2164121.436 5   1679537.832 5  23467466.036    23467478.728           8.000
         9.750
   2434994.272 4   1889649.240 5  23995113.310    23995123.544           7.000
         7.750
  45161088.617 6  35188613.052 6  22546058.153    22546068.692          12.250
        12.500
 99  3  2 20  8 15.0010000  0  6G 2G 7G26G 4G 9G27
  36482107.615 6  28415688.371 6  21879245.036    21879253.985          19.250
        18.000
  24627012.973 6  19189892.563 6  20811894.317    20811902.899          18.000
        20.250
  26906497.733 5  20956225.890 5  23491595.919    23491605.782           9.500
        11.750
   2188855.333 5   1698811.126 5  23472172.591    23472185.118           8.250
         9.750
   2463996.560 5   1912248.471 5  24000633.106    24000641.927           7.500
         7.750
  45283274.918 6  35283823.106 6  22569309.450    22569320.032          12.250
        12.750
 99  3  2 20  8 30.0010000  0  6G 2G 7G26G 4G 9G27
  36568845.843 6  28483276.595 6  21895750.653    21895759.653          19.250
        18.000
  24710574.734 6  19255005.627 6  20827795.638    20827804.134          18.000
        20.250
  26999944.565 5  21029041.579 5  23509378.294    23509388.200           9.750
        11.750
   2213638.527 5   1718122.808 5  23476888.739    23476900.923           8.250
         9.750
   2493043.870 4   1934882.777 5  24006158.536    24006169.646           6.750
         7.750
  45405545.520 6  35379098.828 6  22592576.786    22592587.603          12.250
        12.750
 99  3  2 20  8 45.0010000  0  6G 2G 7G26G 4G 9G27
  36655632.392 6  28550902.469 6  21912265.536    21912274.599          19.000
        18.000
  24794225.910 6  19320188.356 6  20843713.942    20843722.478          18.000
        20.500
  27093501.691 5  21101943.198 5  23527181.763    23527191.700           9.750
        11.750
   2238469.352 5   1737471.622 5  23481613.669    23481626.216           8.250
         9.750
   2522137.539 5   1957553.181 5  24011696.692    24011705.606           7.500
         7.750
  45527898.637 6  35474438.857 6  22615859.802    22615870.646          12.250
        12.750
 99  3  2 20  9  0.0010000  0  6G 2G 7G26G 4G 9G27
  36742468.881 6  28618567.259 6  21928789.825    21928798.813          18.750
        17.750
  24877963.154 6  19385438.159 6  20859648.708    20859657.192          18.000
        20.500
  27187170.021 5  21174931.484 5  23545006.114    23545016.403           9.750
        11.750
   2263344.655 5   1756855.071 5  23486347.349    23486359.649           8.500
         9.750
   2551277.037 4   1980259.336 5  24017240.091    24017251.329           7.000
         8.000
  45650335.195 6  35569843.905 6  22639158.856    22639169.646          12.000
        12.750
 99  3  2 20  9 15.0010000  0  6G 2G 7G26G 4G 9G27
  36829355.694 6  28686271.266 6  21945323.880    21945332.970          18.750
        17.750
  24961785.948 6  19450754.622 6  20875599.716    20875608.224          18.000
        20.500
  27280949.463 5  21248006.342 6  23562851.778    23562862.009           9.750
        12.000
   2288262.990 5   1776272.065 5  23491089.177    23491101.290           8.750
         9.750
   2580463.238 5   2003001.867 5  24022795.177    24022804.489           7.500
         7.750
  45772858.044 6  35665316.196 6  22662474.075    22662484.997          12.000
        12.500
 99  3  2 20  9 30.0020000  0  6G 2G 7G26G 4G 9G27
  36916305.153 6  28754024.081 6  21961869.861    21961878.807          18.750
        18.000
  25045708.461 6  19516148.788 6  20891569.635    20891578.178          18.000
        20.500
  27374851.254 5  21321176.529 6  23580720.721    23580730.830           9.750
        12.000
   2313228.942 5   1795726.157 5  23495840.025    23495852.275           8.750
         9.750
   2609702.811 5   2025785.978 5  24028359.354    24028369.631           7.500
         8.250
  45895483.100 5  35760868.123 6  22685808.947    22685819.729          11.750
        12.750
 99  3  2 20  9 45.0020000  0  6G 2G 7G26G 4G 9G27
  37003297.302 6  28821810.164 6  21978423.877    21978432.857          18.750
        17.750
  25129712.762 6  19581606.685 6  20907555.080    20907563.631          18.000
        20.500
  27468853.873 5  21394425.296 6  23598609.018    23598619.092           9.750
        12.000
   2338230.985 5   1815208.379 5  23500597.432    23500609.838           8.750
         9.750
   2638982.776 5   2048601.590 5  24033930.799    24033940.947           7.500
         8.000
  46018185.567 5  35856480.368 6  22709158.596    22709169.342          11.750
        12.500
 99  3  2 20 10  0.0020000  0  6G 2G 7G26G 4G 9G27
  37090334.407 6  28889631.277 6  21994986.518    21994995.471          18.750
        17.750
  25213804.525 6  19647132.734 6  20923557.244    20923565.697          18.000
        20.500
  27562962.814 5  21467756.908 5  23616517.080    23616527.486           9.500
        11.750
   2363269.613 5   1834719.101 5  23505362.064    23505374.236           8.750
         9.750
   2668306.532 5   2071451.296 5  24039511.447    24039519.939           7.750
         7.750
  46140974.290 5  35952159.826 6  22732524.471    22732535.350          11.750
        12.500
 99  3  2 20 10 15.0020000  0  6G 2G 7G26G 4G 9G27
  37177420.184 6  28957490.313 6  22011558.572    22011567.443          18.750
        17.750
  25297990.208 6  19712731.966 6  20939577.064    20939585.592          18.000
        20.500
  27657180.339 5  21541173.119 5  23634445.869    23634456.475           9.500
        11.750
   2388347.327 5   1854260.275 5  23510134.283    23510146.385           9.000
        10.000
   2697681.483 5   2094340.897 5  24045100.346    24045111.381           7.500
         8.250
  46263852.596 5  36047909.092 6  22755907.463    22755918.271          11.750
        12.500
 99  3  2 20 10 30.0020000  0  6G 2G 7G26G 4G 9G27
  37264556.916 6  29025389.052 6  22028140.104    22028148.994          18.750
        18.000
  25382273.514 6  19778407.269 6  20955615.729    20955624.311          18.000
        20.500
  27751507.550 5  21614674.825 5  23652395.947    23652406.311           9.250
        11.500
   2413464.324 5   1873832.056 5  23514913.830    23514925.971           9.000
         9.750
   2727107.300 5   2117270.144 5  24050700.783    24050709.939           8.000
         8.000
  46386820.592 5  36143728.245 6  22779307.471    22779318.436          11.750
        12.500
 99  3  2 20 10 45.0020000  0  6G 2G 7G26G 4G 9G27
  37351742.006 6  29093325.486 6  22044730.791    22044739.814          18.750
        18.000
  25466655.319 6  19844159.326 6  20971673.057    20971681.662          18.000
        20.500
  27845941.769 5  21688259.894 5  23670366.252    23670376.533           9.250
        11.500
   2438617.589 5   1893432.119 5  23519700.197    23519712.268           9.000
        10.000
   2756584.145 5   2140239.160 5  24056309.439    24056319.814           7.750
         8.250
  46509879.710 5  36239618.401 6  22802725.033    22802735.857          11.750
        12.250
 99  3  2 20 11  0.0020000  0  6G 2G 7G26G 4G 9G27
  37438978.394 6  29161301.883 6  22061331.307    22061340.334          18.750
        18.000
  25551138.351 6  19909990.266 6  20987749.564    20987758.127          18.000
        20.500
  27940485.978 5  21761930.678 5  23688356.947    23688367.561           9.250
        11.500
   2463807.395 5   1913060.632 5  23524493.463    23524505.518           9.000
         9.750
   2786114.277 5   2163249.676 5  24061929.275    24061938.783           8.000
         8.000
  46633036.559 5  36335584.709 6  22826161.049    22826171.943          11.750
        12.250
 99  3  2 20 11 15.0020000  0  6G 2G 7G26G 4G 9G27
  37526261.417 6  29229314.619 6  22077940.736    22077949.748          18.750
        18.000
  25635724.095 6  19975901.234 6  21003845.814    21003854.322          18.000
        20.500
  28035137.939 5  21835685.415 5  23706368.838    23706379.412           9.250
        11.500
   2489035.061 5   1932718.665 5  23529293.986    23529306.139           9.250
        10.000
   2815695.341 5   2186299.896 5  24067558.455    24067568.252           8.000
         8.250
  46756289.489 5  36431625.891 6  22849615.486    22849626.213          11.750
        12.000
 99  3  2 20 11 30.0020000  0  6G 2G 7G26G 4G 9G27
  37613595.821 6  29297367.394 6  22094559.799    22094568.791          18.750
        17.750
  25720420.156 6  20041898.166 6  21019962.838    21019971.346          17.750
        20.500
  28129901.212 5  21909526.899 5  23724401.885    23724412.248           9.250
        11.500
   2514311.188 5   1952414.451 5  23534103.814    23534115.865           9.250
        10.000
   2845332.277 5   2209393.650 5  24073197.416    24073207.244           8.000
         8.250
  46879637.491 5  36527741.155 6  22873087.783    22873098.521          11.750
        12.000
 99  3  2 20 11 45.0020000  0  6G 2G 7G26G 4G 9G27
  37700974.224 6  29365454.450 6  22111187.518    22111196.541          18.750
        18.000
  25805217.176 6  20107973.766 6  21036099.244    21036107.721          17.750
        20.500
  28224769.243 5  21983450.006 5  23742454.971    23742465.154           9.250
        11.500
   2539632.358 5   1972145.339 5  23538922.338    23538934.408           9.250
        10.000
   2875017.038 5   2232524.673 5  24078846.947    24078856.748           8.000
         8.500
  47003070.478 5  36623922.631 5  22896576.354    22896587.014          11.750
        11.750
 99  3  2 20 12  0.0020000  0  6G 2G 7G26G 4G 9G27
  37788404.856 6  29433582.207 6  22127825.049    22127834.002          18.750
        18.000
  25890119.467 6  20174131.396 6  21052255.564    21052264.182          17.750
        20.500
  28319750.247 5  22057461.145 5  23760529.057    23760539.357           9.250
        11.250
   2565008.384 5   1991918.964 5  23543751.158    23543763.209           9.250
        10.000
   2904757.860 5   2255699.376 5  24084506.229    24084515.791           8.000
         8.500
  47126593.294 5  36720174.114 5  22920082.049    22920092.768          11.750
        11.750
 99  3  2 20 12 15.0020000  0  6G 2G 7G26G 4G 9G27
  37875884.096 6  29501747.846 6  22144471.783    22144480.865          18.750
        18.000
  25975119.061 6  20240364.854 6  21068430.479    21068438.975          17.500
        20.500
  28414837.467 5  22131555.054 5  23778623.572    23778634.248           9.250
        11.250
   2590435.728 5   2011732.596 5  23548589.768    23548601.479           9.250
        10.000
   2934550.478 5   2278914.446 5  24090175.361    24090185.232           8.000
         8.500
  47250200.578 5  36816491.405 5  22943603.861    22943614.682          11.750
        11.750
 99  3  2 20 12 30.0020000  0  6G 2G 7G26G 4G 9G27
  37963419.434 6  29569957.182 6  22161129.229    22161138.346          18.750
        17.750
  26060218.710 6  20306676.267 6  21084624.275    21084632.959          17.500
        20.500
  28510033.700 5  22205733.901 5  23796738.971    23796749.209           9.250
        11.250
   2615921.137 5   2031591.453 5  23553439.432    23553451.357           9.500
        10.000
   2964398.141 5   2302172.403 5  24095855.299    24095864.752           8.000
         8.250
  47373895.187 5  36912876.749 5  22967142.096    22967152.943          11.750
        11.750
 99  3  2 20 12 45.0020000  0  6G 2G 7G26G 4G 9G27
  38051010.059 6  29638209.608 6  22177797.158    22177806.197          19.000
        18.000
  26145415.991 6  20373063.764 6  21100836.729    21100845.338          17.500
        20.500
  28605338.629 5  22279997.452 5  23814875.244    23814885.260           9.250
        11.500
   2641464.818 5   2051495.727 5  23558300.064    23558311.947           9.500
        10.250
   2994301.625 5   2325473.853 5  24101545.361    24101555.936           8.250
         8.750
  47497676.777 5  37009329.870 5  22990696.994    22990707.959          11.750
        11.500
 99  3  2 20 13  0.0020000  0  6G 2G 7G26G 4G 9G27
  38138653.455 6  29706503.157 6  22194475.018    22194484.139          19.000
        18.000
  26230706.650 6  20439524.020 6  21117066.994    21117075.689          17.500
        21.000
  28700748.434 5  22354342.721 5  23833030.658    23833040.912           9.250
        11.250
   2667063.398 5   2071442.779 5  23563171.205    23563183.100           9.500
        10.500
   3024261.198 5   2348819.020 5  24107246.783    24107256.350           8.250
         8.750
  47621540.676 5  37105847.121 5  23014267.424    23014278.307          11.500
        11.500
 99  3  2 20 13 15.0020000  0  6G 2G 7G26G 4G 9G27
  38226349.167 6  29774837.463 6  22211163.033    22211172.162          19.250
        18.000
  26316089.431 6  20506056.061 6  21133314.838    21133323.604          17.500
        21.000
  28796263.640 5  22428770.122 5  23851206.799    23851216.834           9.250
        11.250
   2692716.864 5   2091432.605 5  23568052.729    23568064.799           9.500
        10.500
   3054275.154 5   2372206.568 5  24112958.385    24112968.029           8.250
         8.750
  47745481.787 5  37202424.541 5  23037852.877    23037863.697          11.500
        11.500
 99  3  2 20 13 30.0020000  0  6G 2G 7G26G 4G 9G27
  38314099.937 6  29843214.676 6  22227861.518    22227870.686          19.250
        18.000
  26401566.860 6  20572661.853 6  21149580.658    21149589.412          17.500
        21.000
  28891888.605 5  22503283.052 5  23869403.939    23869413.803           9.250
        11.250
   2718427.875 5   2111467.274 5  23572945.307    23572957.201           9.500
        10.500
   3084345.364 5   2395637.934 5  24118679.650    24118690.619           8.250
         9.000
  47869500.259 5  37299062.238 5  23061452.775    23061463.736          11.500
        11.500
 99  3  2 20 13 45.0020000  0  6G 2G 7G26G 4G 9G27
  38401899.660 6  29911630.036 6  22244569.275    22244578.350          19.500
        18.000
  26487129.577 6  20639334.100 6  21165862.627    21165871.279          17.500
        21.000
  28987619.549 5  22577878.555 5  23887620.674    23887630.963           9.250
        11.000
   2744187.502 5   2131539.812 5  23577847.033    23577858.889           9.500
        10.500
   3114466.223 5   2419108.781 5  24124411.885    24124421.662           8.250
         8.750
  47993593.583 5  37395758.265 5  23085067.057    23085078.033          11.500
        11.500
 99  3  2 20 14  0.0020000  0  6G 2G 7G26G 4G 9G27
  38489750.222 6  29980085.004 6  22261286.729    22261295.889          19.500
        18.000
  26572780.915 6  20706075.406 6  21182161.471    21182170.178          17.500
        21.000
  29083460.421 5  22652559.718 5  23905858.510    23905868.889           9.250
        11.000
   2769993.268 5   2151648.324 5  23582757.775    23582769.670           9.500
        10.500
   3144644.397 5   2442624.288 5  24130154.346    24130164.924           8.250
         9.000
  48117770.743 5  37492519.613 5  23108697.213    23108708.150          11.500
        11.500
 99  3  2 20 14 15.0020000  0  6G 2G 7G26G 4G 9G27
  38577647.366 6  30048576.271 6  22278013.127    22278022.174          19.500
        18.000
  26658517.479 6  20772883.122 6  21198476.729    21198485.381          17.500
        21.000
  29179406.492 5  22727322.863 5  23924116.486    23924126.764           9.250
        11.000
   2795838.088 5   2171787.261 5  23587675.713    23587687.654           9.500
        10.500
   3174876.673 5   2466181.942 5  24135907.900    24135917.799           8.250
         9.000
  48242029.496 5  37589344.551 5  23132343.002    23132353.963          11.500
        11.500
 99  3  2 20 14 30.0020000  0  6G 2G 7G26G 4G 9G27
  38665588.829 6  30117102.075 6  22294747.885    22294756.838          19.500
        18.250
  26744342.406 6  20839759.688 6  21214808.791    21214817.307          17.500
        20.750
  29275457.917 5  22802168.092 5  23942394.283    23942404.436           9.250
        11.000
   2821720.773 5   2191955.696 5  23592601.111    23592612.740           9.500
        10.500
   3205165.596 5   2489783.744 5  24141671.104    24141681.791           8.250
         9.250
  48366372.280 5  37686234.946 5  23156004.525    23156015.568          11.250
        11.500
 99  3  2 20 14 45.0030000  0  6G 2G 7G26G 4G 9G27
  38753579.760 6  30185666.421 6  22311491.960    22311501.194          19.500
        18.000
  26830264.480 6  20906711.956 6  21231159.187    21231167.843          17.500
        20.750
  29371622.927 5  22877101.843 5  23960694.226    23960704.288           9.250
        11.000
   2847643.094 5   2212155.022 5  23597533.585    23597545.476           9.500
        10.500
   3235513.574 5   2513431.569 5  24147446.187    24147456.179           8.250
         9.000
  48490807.289 5  37783197.219 5  23179684.015    23179694.882          11.250
        11.500
 99  3  2 20 15  0.0030000  0  6G 2G 7G26G 4G 9G27
  38841607.683 6  30254259.592 6  22328243.194    22328252.335          19.750
        18.250
  26916275.509 6  20973733.541 6  21247526.460    21247535.116          17.500
        21.000
  29467890.180 5  22952115.248 5  23979013.374    23979023.581           9.250
        11.250
   2873603.007 5   2232383.643 5  23602473.577    23602485.249           9.500
        10.500
   3265919.231 5   2537124.319 5  24153232.679    24153242.249           8.750
         9.000
  48615320.699 5  37880220.587 5  23203378.140    23203389.155          11.250
        11.500
 99  3  2 20 15 15.0030000  0  6G 2G 7G26G 4G 9G27
  38929679.595 6  30322887.038 6  22345002.733    22345011.913          19.750
        18.250
  27002382.173 6  21040829.638 6  21263911.960    21263920.581          17.500
        20.750
  29564265.010 5  23027212.488 5  23997352.765    23997363.190           9.250
        11.250
   2899603.587 5   2252643.951 5  23607421.312    23607432.979           9.500
        10.500
   3296382.861 5   2560862.260 5  24159029.101    24159039.405           8.250
         9.250
  48739920.232 5  37977311.059 5  23227088.421    23227099.569          11.000
        11.250
 99  3  2 20 15 30.0030000  0  6G 2G 7G26G 4G 9G27
  39017795.984 6  30391549.147 6  22361770.812    22361779.839          19.750
        18.250
  27088583.815 6  21107999.751 6  21280315.694    21280324.312          17.500
        20.750
  29660746.347 5  23102392.715 5  24015712.515    24015723.046           9.250
        11.250
   2925646.269 5   2272937.076 5  23612377.093    23612388.675           9.750
        10.750
   3326906.087 5   2584646.641 5  24164837.507    24164847.530           8.500
         9.250
  48864609.698 5  38074471.598 5  23250816.218    23250827.464          11.000
        11.250
 99  3  2 20 15 45.0030000  0  6G 2G 7G26G 4G 9G27
  39105953.280 6  30460243.120 6  22378546.421    22378555.601          19.750
        18.250
  27174874.836 6  21175239.505 6  21296736.319    21296744.897          17.500
        21.000
  29757327.031 5  23177650.357 5  24034091.085    24034101.636           9.000
        11.250
   2951730.525 5   2293262.579 5  23617340.593    23617351.983           9.750
        10.500
   3357486.496 5   2608475.572 5  24170656.718    24170666.417           8.500
         9.000
  48989387.361 5  38171700.870 5  23274560.663    23274571.913          10.750
        11.250
 99  3  2 20 16  0.0030000  0  6G 2G 7G26G 4G 9G27
  39194156.024 6  30528972.519 6  22395330.921    22395340.124          19.750
        18.250
  27261258.630 6  21242551.558 6  21313174.577    21313183.261          17.500
        21.000
  29854005.455 5  23252984.158 5  24052488.616    24052498.847           9.000
        11.250
   2977859.607 5   2313623.026 5  23622312.710    23622324.190           9.750
        10.500
   3388128.567 5   2632352.546 5  24176486.976    24176498.280           8.500
         9.250
  49114255.219 5  38269000.428 5  23298322.476    23298333.698          10.750
        11.250
 99  3  2 20 16 15.0030000  0  6G 2G 7G26G 4G 9G27
  39282404.824 6  30597737.801 6  22412124.179    22412133.323          19.750
        18.250
  27347735.047 6  21309935.778 6  21329630.577    21329639.159          17.500
        21.000
  29950777.668 5  23328391.041 5  24070903.757    24070914.413           8.750
        11.500
   3004035.379 5   2334019.850 5  23627293.640    23627305.171           9.750
        10.750
   3418829.677 5   2656275.535 5  24182329.843    24182339.562           8.750
         9.250
  49239206.403 5  38366364.906 5  23322099.796    23322110.948          10.500
        11.000
 99  3  2 20 16 30.0030000  0  6G 2G 7G26G 4G 9G27
  39370710.064 6  30666547.061 6  22428927.991    22428937.077          19.750
        18.250
  27434313.608 6  21377399.590 6  21346105.819    21346114.511          17.500
        21.000
  30047652.560 5  23403877.928 5  24089338.140    24089349.042           8.750
        11.500
   3030271.019 5   2354463.319 5  23632285.976    23632297.378           9.750
        10.750
   3449598.313 5   2680251.136 5  24188184.937    24188195.429           8.750
         9.250
  49364247.894 5  38463799.757 5  23345894.335    23345905.526          10.250
        11.000
 99  3  2 20 16 45.0030000  0  6G 2G 7G26G 4G 9G27
  39459058.772 6  30735390.191 6  22445740.280    22445749.472          19.750
        18.000
  27520981.476 6  21444932.992 6  21362598.327    21362607.022          17.500
        21.000
  30144615.580 5  23479433.489 5  24107789.921    24107800.558           8.750
        11.250
   3056555.365 5   2374944.749 5  23637287.788    23637299.265          10.000
        10.750
   3480417.743 5   2704266.322 5  24194049.413    24194059.190           9.000
         9.250
  49489364.643 5  38561293.249 5  23369703.288    23369714.690          10.000
        11.000
 99  3  2 20 17  0.0030000  0  6G 2G 7G26G 4G 9G27
  39547457.683 6  30804272.451 6  22462562.046    22462571.362          19.500
        18.000
  27607741.585 6  21512538.274 6  21379108.132    21379116.882          17.500
        21.000
  30241674.513 5  23555063.793 5  24126259.327    24126270.136           8.750
        11.250
   3082896.984 5   2395470.807 5  23642300.257    23642311.644          10.000
        10.750
   3511291.961 5   2728324.198 5  24199924.991    24199935.272           9.000
         9.500
  49614561.266 5  38658848.980 5  23393527.608    23393538.960          10.000
        11.000
 99  3  2 20 17 15.0030000  0  6G 2G 7G26G 4G 9G27
  39635912.359 6  30873198.147 6  22479394.397    22479403.632          19.500
        18.000
  27694593.522 6  21580215.107 6  21395635.530    21395644.062          17.500
        21.000
  30338832.681 5  23630771.407 5  24144748.491    24144758.706           8.750
        11.250
   3109297.422 5   2416042.679 5  23647323.897    23647335.386          10.000
        10.750
   3542223.628 5   2752426.841 5  24205810.616    24205820.636           8.750
         9.250
  49739839.364 5  38756468.200 5  23417367.218    23417378.558           9.750
        11.000
 99  3  2 20 17 30.0030000  0  6G 2G 7G26G 4G 9G27
  39724417.724 6  30942163.354 6  22496236.390    22496245.608          19.250
        17.750
  27781526.551 6  21647955.126 6  21412178.296    21412186.854          17.500
        21.000
  30436081.359 5  23706549.565 5  24163253.796    24163264.327           8.750
        11.000
   3135747.130 5   2436652.959 5  23652356.968    23652368.210          10.250
        10.500
   3573204.677 5   2776567.951 5  24211706.460    24211715.944           9.000
         9.000
  49865190.673 5  38854144.461 5  23441220.694    23441232.304           9.750
        10.750
 99  3  2 20 17 45.0030000  0  6G 2G 7G26G 4G 9G27
  39812980.026 6  31011172.923 6  22513089.140    22513098.335          19.250
        17.750
  27868548.659 6  21715764.560 6  21428738.163    21428746.663          17.500
        21.000
  30533428.989 5  23782404.822 5  24181778.687    24181789.085           8.750
        11.000
   3162252.949 5   2457306.958 5  23657400.835    23657412.198          10.250
        10.500
   3604242.881 5   2800753.612 5  24217613.288    24217623.077           9.000
         9.500
  49990621.183 5  38951882.440 5  23465089.499    23465100.909           9.750
        10.750
 99  3  2 20 18  0.0030000  0  6G 2G 7G26G 4G 9G27
  39901600.646 6  31080227.937 6  22529952.999    22529962.194          19.250
        17.750
  27955662.996 6  21783645.862 6  21445315.390    21445323.905          17.500
        20.750
  30630878.334 5  23858339.342 5  24200322.335    24200332.968           8.750
        11.250
   3188815.424 5   2478005.098 5  23662455.640    23662466.687          10.500
        10.500
   3635339.019 5   2824984.414 5  24223529.460    24223539.788           8.750
         9.250
  50116127.491 5  39049679.490 5  23488972.640    23488984.163           9.750
        10.750
 99  3  2 20 18 15.0030000  0  6G 2G 7G26G 4G 9G27
  39990277.544 6  31149326.801 6  22546827.796    22546837.046          19.250
        17.750
  28042868.074 6  21851597.864 6  21461910.116    21461918.562          17.750
        20.750
  30728431.999 5  23934355.143 5  24218886.601    24218897.089           8.750
        11.000
   3215433.701 5   2498746.720 5  23667520.780    23667532.046          10.500
        10.750
   3666493.134 5   2849260.388 5  24229458.835    24229467.952           9.250
         9.250
  50241705.489 5  39147532.387 5  23512869.382    23512880.854           9.500
        10.750
 99  3  2 20 18 30.0030000  0  6G 2G 7G26G 4G 9G27
  40079009.492 6  31218468.554 6  22563712.897    22563722.132          19.000
        17.750
  28130163.755 6  21919620.475 6  21478521.882    21478530.284          17.500
        20.500
  30826095.834 5  24010456.788 5  24237471.515    24237482.120           9.000
        11.000
   3242110.574 5   2519534.007 5  23672597.163    23672608.429          10.750
        10.750
   3697707.684 5   2873583.445 5  24235397.851    24235408.714           9.000
         9.500
  50367358.282 5  39245443.581 5  23536780.304    23536791.843           9.500
        10.750
 99  3  2 20 18 45.0030000  0  6G 2G 7G26G 4G 9G27
  40167791.418 6  31287649.259 6  22580607.530    22580616.722          19.000
        17.500
  28217544.549 6  21987709.403 6  21495149.835    21495158.171          17.750
        20.500
  30923866.758 5  24086641.896 5  24256076.796    24256087.155           9.000
        11.000
   3268841.833 5   2540363.654 5  23677683.843    23677695.089          10.750
        10.750
   3728978.306 5   2897950.201 5  24241349.069    24241358.241           9.250
         9.250
  50493083.712 5  39343411.373 5  23560705.241    23560716.780           9.750
        10.750
 99  3  2 20 19  0.0030000  0  6G 2G 7G26G 4G 9G27
  40256622.147 6  31356867.986 6  22597511.405    22597520.589          18.750
        17.500
  28305007.325 6  22055862.206 6  21511793.468    21511801.745          17.500
        20.500
  31021743.855 5  24162909.732 5  24274702.226    24274712.983           9.000
        11.000
   3295626.777 5   2561235.143 5  23682780.804    23682792.022          10.750
        10.750
   3760307.261 5   2922362.424 5  24247310.476    24247320.464           9.250
         9.250
  50618879.101 5  39441433.668 5  23584643.280    23584654.948           9.750
        10.500
 99  3  2 20 19 15.0030000  0  6G 2G 7G26G 4G 9G27
  40345504.081 6  31426126.616 6  22614425.249    22614434.390          18.750
        17.750
  28392554.228 6  22124080.570 6  21528453.007    21528461.241          17.500
        20.500
  31119728.770 5  24239261.567 5  24293348.187    24293358.503           9.000
        11.000
   3322466.352 5   2582149.199 5  23687888.093    23687899.280          10.750
        11.000
   3791703.300 5   2946826.905 5  24253285.085    24253294.804           9.500
         9.500
  50744745.238 5  39539511.095 5  23608594.788    23608606.397           9.750
        10.500
 99  3  2 20 19 30.0030000  0  6G 2G 7G26G 4G 9G27
  40434455.865 6  31495439.674 6  22631352.272    22631361.218          19.000
        17.500
  28480205.936 6  22192380.598 6  21545132.624    21545140.882          17.500
        20.250
  31217836.669 5  24315709.254 5  24312017.444    24312027.718           9.000
        10.750
   3349380.011 5   2603120.975 5  23693009.577    23693020.601          10.750
        11.250
   3823187.008 5   2971359.696 5  24259276.171    24259285.804           9.500
         9.250
  50870701.175 5  39637658.503 5  23632563.640    23632575.257           9.750
        10.500
 99  3  2 20 19 45.0030000  0  6G 2G 7G26G 4G 9G27
  40523482.320 6  31564810.916 6  22648293.405    22648302.624          19.000
        17.500
  28567972.795 6  22260770.353 6  21561834.038    21561842.515          17.500
        20.500
  31316074.466 5  24392258.143 5  24330711.202    24330721.839           9.000
        11.000
   3376378.051 5   2624158.516 5  23698147.054    23698158.175          10.750
        11.000
   3854766.011 5   2995966.748 5  24265285.429    24265295.261           9.500
         9.500
  50996756.361 5  39735883.234 5  23656551.218    23656562.831           9.750
        10.500
 99  3  2 20 20  0.0040000  0  6G 2G 7G26G 4G 9G27
  40612547.335 6  31634212.209 6  22665241.871    22665251.121          18.750
        17.500
  28655817.803 6  22329221.007 6  21578550.269    21578558.836          17.500
        20.500
  31414407.308 5  24468881.109 5  24349423.551    24349434.012           9.000
        11.000
   3403424.240 5   2645233.562 5  23703293.637    23703304.902          11.000
        11.250
   3886399.362 5   3020616.158 5  24271304.684    24271314.277           9.500
         9.500
  51122876.460 5  39834158.560 5  23680550.988    23680562.496           9.750
        10.500
 99  3  2 20 20 15.0040000  0  6G 2G 7G26G 4G 9G27
  40701640.518 6  31703635.453 6  22682195.746    22682204.902          18.750
        17.500
  28743726.129 6  22397721.003 6  21595278.793    21595287.273          17.000
        20.500
  31512821.073 5  24545567.118 5  24368151.293    24368161.773           8.750
        11.000
   3430516.490 5   2666344.502 5  23708449.059    23708460.332          10.750
        11.250
   3918082.034 5   3045303.990 5  24277334.082    24277343.656           9.500
         9.500
  51249046.544 5  39932472.835 5  23704560.629    23704572.137          10.000
        10.500
 99  3  2 20 20 30.0040000  0  6G 2G 7G26G 4G 9G27
  40790784.137 6  31773097.985 6  22699159.019    22699168.215          18.750
        17.250
  28831717.518 6  22466285.717 6  21612023.043    21612031.594          17.000
        20.500
  31611336.311 5  24622332.199 5  24386898.191    24386908.703           8.750
        11.250
   3457671.034 5   2687503.989 5  23713616.355    23713627.562          10.750
        11.250
   3949829.154 5   3070042.046 5  24283375.621    24283384.519           9.750
         9.500
  51375294.676 5  40030847.920 5  23728584.840    23728596.488          10.000
        10.500
 99  3  2 20 20 45.0040000  0  6G 2G 7G26G 4G 9G27
  40879979.538 6  31842600.879 6  22716132.512    22716141.750          18.750
        17.250
  28919792.878 6  22534915.860 6  21628783.121    21628791.641          17.000
        20.500
  31709948.332 5  24699172.702 5  24405663.152    24405673.902           8.750
        11.000
   3484885.531 5   2708710.173 5  23718794.793    23718806.180          10.750
        11.250
   3981638.971 5   3094828.946 5  24289428.863    24289438.371           9.750
         9.500
  51501621.442 5  40129284.275 5  23752624.316    23752635.742          10.000
        10.500
 99  3  2 20 21  0.0040000  0  6G 2G 7G26G 4G 9G27
  40969230.300 6  31912146.907 6  22733116.418    22733125.609          18.750
        17.250
  29007954.950 6  22603613.580 6  21645559.809    21645568.414          17.000
        20.500
  31808655.870 5  24776087.631 5  24424446.754    24424457.211           8.750
        11.000
   3512161.055 5   2729963.930 5  23723985.144    23723996.441          10.750
        11.250
   4013515.890 5   3119668.154 5  24295494.480    24295504.137           9.750
         9.750
  51628028.998 5  40227783.580 5  23776678.926    23776690.293          10.250
        10.500
 99  3  2 20 21 15.0040000  0  6G 2G 7G26G 4G 9G27
  41058541.197 6  31981739.796 6  22750111.644    22750120.871          18.500
        17.250
  29096210.060 6  22672383.793 6  21662354.277    21662362.695          17.250
        20.500
  31907463.098 5  24853080.238 5  24443249.309    24443260.199           8.750
        11.250
   3539500.641 5   2751267.594 5  23729187.887    23729198.855          10.750
        11.250
   4045464.160 5   3144562.940 5  24301574.168    24301583.496           9.750
         9.500
  51754524.077 5  40326351.107 5  23800750.129    23800761.687          10.500
        10.750
 99  3  2 20 21 30.0040000  0  6G 2G 7G26G 4G 9G27
  41147909.469 6  32051377.383 6  22767117.824    22767127.105          18.500
        17.000
  29184556.791 6  22741225.399 6  21679165.965    21679174.418          17.250
        20.500
  32006366.725 5  24930147.957 5  24462070.090    24462080.562           9.000
        11.000
   3566903.068 5   2772620.223 5  23734402.285    23734413.301          10.750
        11.500
   4077476.512 5   3169507.656 5  24307665.918    24307675.891           9.750
         9.750
  51881106.327 5  40424986.543 5  23824838.144    23824849.559          10.500
        10.750
 99  3  2 20 21 45.0040000  0  6G 2G 7G26G 4G 9G27
  41237334.273 6  32121059.033 6  22784134.887    22784144.211          18.500
        17.250
  29272993.005 6  22810136.740 6  21695994.902    21696003.340          17.250
        20.500
  32105365.109 5  25007289.514 5  24480908.926    24480919.437           8.750
        11.000
   3594366.976 5   2794020.762 5  23739628.246    23739639.410          10.750
        11.250
   4109548.820 5   3194499.107 5  24313769.144    24313777.816          10.000
         9.500
  52007776.410 5  40523690.428 5  23848942.519    23848954.238          10.500
        10.750
 99  3  2 20 22  0.0040000  0  6G 2G 7G26G 4G 9G27
  41326819.518 6  32190787.776 6  22801163.332    22801172.703          18.500
        17.500
  29361521.929 6  22879120.311 6  21712841.465    21712849.910          17.250
        20.500
  32204462.849 5  25084508.498 5  24499766.363    24499777.144           8.750
        11.250
   3621895.693 5   2815471.795 5  23744866.629    23744877.937          10.750
        11.250
   4141685.735 5   3219540.892 5  24319884.785    24319893.930          10.000
         9.750
  52134538.848 5  40622466.268 5  23873064.676    23873076.531          10.500
        10.750
 99  3  2 20 22 15.0040000  0  6G 2G 7G26G 4G 9G27
  41416366.523 6  32260564.641 6  22818203.590    22818212.949          18.500
        17.500
  29450144.263 6  22948176.675 6  21729705.855    21729714.234          17.500
        20.500
  32303661.020 5  25161805.734 5  24518643.160    24518654.105           8.750
        11.250
   3649487.048 5   2836971.653 5  23750117.160    23750128.113          10.750
        11.250
   4173890.905 5   3244635.867 5  24326012.668    24326022.516           9.750
        10.000
  52261392.261 5  40721312.995 5  23897204.207    23897215.961          10.500
        10.750
 99  3  2 20 22 30.0040000  0  6G 2G 7G26G 4G 9G27
  41505968.099 6  32330384.034 6  22835254.230    22835263.519          18.500
        17.500
  29538858.598 6  23017304.726 6  21746587.551    21746596.043          17.500
        20.500
  32402956.769 5  25239179.003 5  24537538.488    24537549.488           8.750
        11.000
   3677134.140 5   2858514.923 5  23755378.168    23755389.262          10.750
        11.250
   4206162.780 5   3269782.823 5  24332154.371    24332163.656          10.000
        10.000
  52388332.211 5  40820227.157 5  23921360.129    23921371.898          10.000
        10.750
 99  3  2 20 22 45.0040000  0  6G 2G 7G26G 4G 9G27
  41595630.753 6  32400251.008 6  22852316.574    22852325.953          18.500
        17.250
  29627677.166 6  23086513.996 6  21763489.230    21763497.617          17.750
        20.750
  32502358.568 5  25316634.917 5  24556454.449    24556465.070           8.750
        11.250
   3704843.740 5   2880106.911 5  23760651.090    23760661.945          10.750
        11.500
   4238512.413 5   3294990.360 5  24338309.598    24338319.168          10.000
        10.000
  52515364.305 5  40919213.119 5  23945533.707    23945545.398          10.000
        10.750
 99  3  2 20 23  0.0040000  0  6G 2G 7G26G 4G 9G27
  41685351.776 6  32470163.477 6  22869389.894    22869399.078          18.750
        17.250
  29716596.631 6  23155801.887 6  21780410.121    21780418.582          17.750
        20.750
  32601865.458 5  25394172.715 5  24575389.816    24575400.578           9.000
        11.500
   3732615.448 5   2901747.289 5  23765935.785    23765946.730          10.750
        11.500
   4270940.130 5   3320258.742 5  24344480.863    24344490.172          10.000
        10.000
  52642483.595 5  41018267.026 5  23969723.480    23969735.387           9.750
        11.000
 99  3  2 20 23 15.0040000  0  6G 2G 7G26G 4G 9G27
  41775131.394 6  32540121.597 6  22886474.519    22886483.738          18.500
        17.000
  29805616.947 6  23225168.367 6  21797350.129    21797358.473          17.750
        20.750
  32701476.545 5  25471791.696 5  24594345.269    24594355.836           9.000
        11.250
   3760451.823 5   2923438.065 5  23771232.824    23771243.531          10.750
        11.500
   4303445.018 5   3345587.266 5  24350665.910    24350675.281          10.000
        10.000
  52769689.921 5  41117388.753 5  23993930.277    23993942.062           9.750
        11.000
 99  3  2 20 23 30.0040000  0  6G 2G 7G26G 4G 9G27
  41864974.662 6  32610129.319 6  22903571.223    22903580.461          18.500
        17.250
  29894739.492 6  23294614.503 6  21814309.590    21814318.059          17.750
        20.500
  32801197.093 5  25549495.976 5  24613321.637    24613332.391           9.000
        11.500
   3788359.702 5   2945184.547 5  23776543.277    23776554.160          10.750
        11.250
   4336031.247 5   3370979.157 5  24356867.191    24356876.352          10.250
        10.000
  52896984.046 5  41216578.885 5  24018153.473    24018165.426           9.750
        10.750
 99  3  2 20 23 45.0040000  0  6G 2G 7G26G 4G 9G27
  41954877.873 6  32680183.748 6  22920679.176    22920688.426          18.500
        17.250
  29983959.283 6  23364136.421 6  21831287.426    21831295.953          17.750
        20.750
  32901022.286 5  25627281.806 5  24632317.723    24632328.359           9.000
        11.500
   3816336.260 5   2966984.551 5  23781867.121    23781877.953          10.750
        11.500
   4368696.640 5   3396432.746 5  24363082.473    24363092.410          10.000
        10.250
  53024357.596 5  41315830.909 5  24042391.894    24042403.820           9.500
        10.750
 99  3  2 20 24  0.0040000  0  6G 2G 7G26G 4G 9G27
  42044841.484 6  32750285.249 6  22937798.668    22937807.961          18.500
        17.250
  30073276.560 6  23433734.299 6  21848283.926    21848292.352          17.500
        20.750
  33000952.175 5  25705149.212 5  24651333.754    24651344.457           9.000
        11.250
   3844381.577 5   2988838.138 5  23787203.746    23787214.578          10.750
        11.500
   4401443.276 5   3421949.654 5  24369314.254    24369324.141          10.000
        10.500
  53151809.699 5  41415144.147 5  24066645.379    24066657.387           9.250
        10.750
 99  3  2 20 24 15.0040000  0  6G 2G 7G26G 4G 9G27
  42134866.203 6  32820434.357 6  22954929.879    22954939.137          18.500
        17.250
  30162691.264 6  23503408.092 6  21865298.910    21865307.402          17.500
        20.750
  33100988.377 5  25783099.458 5  24670370.059    24670381.031           9.000
        11.500
   3872498.882 5   3010747.806 5  23792554.340    23792565.023          11.000
        11.500
   4434272.656 5   3447531.022 5  24375561.582    24375570.848          10.000
        10.250
  53279336.348 5  41514515.465 5  24090912.965    24090924.898           9.250
        10.750
 99  3  2 20 24 30.0040000  0  6G 2G 7G26G 4G 9G27
  42224956.007 6  32890634.192 6  22972073.434    22972082.672          18.500
        17.500
  30252204.701 6  23573158.822 6  21882332.855    21882341.336          17.500
        20.750
  33201133.245 5  25861134.378 5  24689426.652    24689437.797           8.750
        11.500
   3900694.348 5   3032718.401 5  23797919.691    23797930.519          11.000
        11.500
   4467185.736 5   3473177.614 5  24381824.324    24381834.559          10.000
        10.500
  53406938.228 5  41613945.413 5  24115194.949    24115206.836           9.250
        10.500
 99  3  2 20 24 45.0040000  0  6G 2G 7G26G 4G 9G27
  42315114.209 6  32960887.314 6  22989230.004    22989239.398          18.500
        17.250
  30341817.842 6  23642987.243 6  21899385.621    21899394.203          17.250
        20.500
  33301387.027 5  25939254.161 5  24708504.434    24708515.328           8.750
        11.250
   3928975.261 5   3054755.563 5  23803301.394    23803312.227          11.000
        11.750
   4500183.748 5   3498890.384 5  24388104.004    24388113.238          10.000
        10.500
  53534621.058 5  41713438.440 5  24139492.113    24139504.176           9.000
        10.500
 99  3  2 20 25  0.0040000  0  6G 2G 7G26G 4G 9G27
  42405342.560 6  33031195.106 6  23006399.863    23006409.223          18.500
        17.250
  30431527.849 6  23712891.146 6  21916456.949    21916465.406          17.500
        20.500
  33401743.038 5  26017453.614 5  24727601.293    24727612.152           8.500
        11.000
   3957342.939 5   3076860.341 5  23808699.332    23808710.109          11.000
        11.750
   4533263.198 5   3524666.611 5  24394398.387    24394408.633          10.000
        10.750
  53662382.182 5  41812992.460 5  24163804.254    24163816.437           9.000
        10.500
 99  3  2 20 25 15.0050000  0  6G 2G 7G26G 4G 9G27
  42495649.818 6  33101564.385 6  23023584.696    23023594.079          18.250
        17.000
  30521338.849 6  23782873.742 6  21933547.228    21933555.825          17.250
        20.500
  33502207.344 5  26095737.444 5  24746719.454    24746730.079           8.750
        11.000
   3985804.317 5   3099038.132 5  23814115.423    23814126.196          11.250
        11.750
   4566426.027 5   3550507.813 5  24400708.970    24400718.700          10.000
        10.500
  53790233.959 5  41912617.132 5  24188133.688    24188146.005           9.000
        10.250
 99  3  2 20 25 30.0050000  0  6G 2G 7G26G 4G 9G27
  42586025.732 6  33171987.153 6  23040782.649    23040792.075          18.250
        17.250
  30611241.110 6  23852927.448 6  21950655.079    21950663.622          17.250
        20.500
  33602768.114 5  26174096.449 5  24765855.329    24765866.224           8.500
        11.000
   4014355.098 5   3121285.584 5  23819548.415    23819559.114          11.500
        11.750
   4599667.554 5   3576410.346 5  24407034.774    24407044.927          10.000
        10.750
  53918159.847 5  42012299.546 5  24212477.517    24212489.474           9.000
        10.000
 99  3  2 20 25 45.0050000  0  6G 2G 7G26G 4G 9G27
  42676477.643 6  33242469.141 6  23057995.103    23058004.579          18.000
        17.250
  30701245.696 6  23923060.887 6  21967782.431    21967790.974          17.250
        20.750
  33703439.382 5  26252541.552 5  24785012.673    24785023.587           8.500
        11.000
   4043000.998 5   3143607.164 5  23824999.415    23825010.145          11.500
        11.750
   4632993.923 5   3602378.970 5  24413376.501    24413386.372          10.000
        10.500
  54046171.953 5  42112049.153 5  24236837.368    24236849.235           8.750
        10.000
 99  3  2 20 26  0.0050000  0  6G 2G 7G26G 4G 9G27
  42767001.113 6  33313006.902 6  23075220.985    23075230.583          18.000
        17.000
  30791351.395 6  23993273.123 6  21984928.829    21984937.395          17.000
        20.500
  33804217.434 5  26331069.863 5  24804190.267    24804201.013           8.750
        10.750
   4071736.734 5   3165998.732 6  23830467.649    23830478.204          11.500
        12.000
   4666399.488 5   3628409.322 5  24419733.438    24419743.587          10.000
        10.750
  54174269.207 5  42211865.091 5  24261213.282    24261225.438           8.750
         9.750
 99  3  2 20 26 15.0050000  0  6G 2G 7G26G 4G 9G27
  42857599.446 6  33383602.995 6  23092461.392    23092470.942          18.000
        17.250
  30881562.383 6  24063567.397 6  22002095.454    22002104.032          17.250
        20.750
  33905106.572 5  26409684.733 5  24823389.040    24823399.587           8.750
        10.750
   4100566.868 5   3188463.871 5  23835953.657    23835964.255          11.750
        11.750
   4699889.294 5   3654505.309 5  24426105.907    24426116.052           9.750
        10.750
  54302458.505 5  42311752.765 5  24285607.157    24285619.282           8.750
         9.750
 99  3  2 20 26 30.0050000  0  6G 2G 7G26G 4G 9G27
  42948270.552 6  33454255.783 6  23109715.454    23109725.149          18.000
        17.250
  30971877.523 6  24133942.822 6  22019281.759    22019290.216          17.250
        20.750
  34006105.590 5  26488385.225 5  24842608.306    24842619.056           8.750
        10.750
   4129488.836 5   3211000.560 6  23841457.454    23841468.071          11.750
        12.000
   4733461.606 5   3680665.587 5  24432494.649    24432504.497          10.000
        10.750
  54430738.965 5  42411711.469 5  24310018.212    24310030.497           8.750
         9.750
 99  3  2 20 26 45.0050000  0  6G 2G 7G26G 4G 9G27
  43039008.335 6  33524960.536 6  23126982.329    23126991.942          17.750
        17.250
  31062295.818 6  24204398.635 6  22036488.048    22036496.567          17.500
        20.750
  34107207.862 5  26567166.170 5  24861847.767    24861858.181           8.750
        10.750
   4158496.504 6   3233604.024 6  23846977.259    23846987.821          12.000
        12.250
   4767109.746 5   3706884.959 5  24438897.696    24438908.009          10.000
        11.000
  54559109.037 5  42511739.988 5  24334446.032    24334458.501           8.750
         9.500
 99  3  2 20 27  0.0050000  0  6G 2G 7G26G 4G 9G27
  43129812.113 6  33595716.712 6  23144261.626    23144271.267          17.750
        17.250
  31152817.073 6  24274934.672 6  22053713.735    22053722.138          17.500
        20.750
  34208410.818 5  26646025.578 5  24881106.001    24881116.700           8.750
        10.750
   4187583.889 6   3256269.609 6  23852512.267    23852522.634          12.250
        12.250
   4800834.812 5   3733164.270 5  24445315.649    24445325.204          10.250
        11.000
  54687565.668 5  42611835.970 5  24358890.782    24358902.853           8.750
         9.500
 99  3  2 20 27 15.0050000  0  6G 2G 7G26G 4G 9G27
  43220683.158 6  33666525.305 6  23161553.845    23161563.517          18.000
        17.250
  31243443.372 6  24345552.562 6  22070959.431    22070967.821          17.500
        20.750
  34309719.478 5  26724967.337 5  24900384.306    24900395.204           8.500
        10.750
   4216751.729 6   3278997.885 6  23858062.728    23858073.122          12.250
        12.500
   4834639.450 5   3759505.575 5  24451748.095    24451758.196          10.000
        11.000
  54816108.870 5  42711999.406 5  24383351.720    24383363.935           8.750
         9.250
 99  3  2 20 27 30.0050000  0  6G 2G 7G26G 4G 9G27
  43311618.410 6  33737383.925 6  23178858.360    23178867.845          18.000
        17.500
  31334172.078 6  24416250.251 6  22088224.524    22088232.915          17.500
        20.750
  34411136.159 5  26803993.281 5  24919683.071    24919693.868           8.500
        10.750
   4245998.232 6   3301787.462 6  23863628.149    23863638.614          12.250
        12.500
   4868526.585 5   3785911.182 5  24458196.657    24458206.770          10.000
        11.000
  54944735.815 5  42812228.085 5  24407828.735    24407840.954           8.750
         9.250
 99  3  2 20 27 45.0050000  0  6G 2G 7G26G 4G 9G27
  43402617.456 6  33808292.257 6  23196174.899    23196184.458          18.000
        17.500
  31425004.987 6  24487029.134 6  22105509.001    22105517.583          17.500
        20.500
  34512665.737 5  26883107.204 5  24939003.618    24939014.618           8.250
        11.000
   4275326.516 6   3324640.753 6  23869209.009    23869219.567          12.250
        12.750
   4902500.545 5   3812384.427 5  24464661.696    24464671.474          10.000
        11.000
  55073447.027 5  42912522.440 5  24432321.774    24432333.876           8.750
         9.250
 99  3  2 20 28  0.0050000  0  6G 2G 7G26G 4G 9G27
  43493680.555 6  33879250.505 6  23213503.743    23213513.263          18.000
        17.500
  31515938.833 6  24557886.669 6  22122813.579    22122821.911          17.500
        20.750
  34614304.893 5  26962306.497 5  24958344.540    24958356.130           8.000
        11.000
   4304737.129 6   3347558.198 6  23874805.446    23874816.106          12.250
        12.750
   4936563.766 5   3838927.243 5  24471143.524    24471153.063          10.500
        10.750
  55202242.589 5  43012882.510 5  24456830.946    24456843.192           8.750
         9.250
 99  3  2 20 28 15.0050000  0  6G 2G 7G26G 4G 9G27
  43584808.702 6  33950259.432 6  23230844.720    23230854.270          18.250
        17.500
  31606967.719 6  24628818.259 6  22140135.759    22140144.212          17.250
        20.750
  34716046.101 5  27041585.314 5  24977705.728    24977716.974           8.250
        11.000
   4334227.994 6   3370538.184 6  23880417.431    23880427.966          12.250
        12.750
   4970715.188 5   3865538.768 5  24477642.438    24477652.056          10.500
        10.750
  55331120.318 5  43113306.618 5  24481355.603    24481367.731           8.750
         9.250
 99  3  2 20 28 30.0050000  0  6G 2G 7G26G 4G 9G27
  43676010.176 6  34021325.503 6  23248199.907    23248209.317          18.250
        17.500
  31698095.321 6  24699826.777 6  22157476.720    22157485.212          17.250
        20.750
  34817895.828 5  27120948.681 5  24997087.188    24997097.935           8.000
        10.750
   4363808.220 6   3393587.796 6  23886046.235    23886056.735          12.250
        12.750
   5004962.404 5   3892224.948 5  24484159.360    24484169.091          10.500
        10.750
  55460083.895 5  43213797.612 5  24505896.821    24505909.005           8.750
         9.000
 99  3  2 20 28 45.0050000  0  6G 2G 7G26G 4G 9G27
  43767282.247 6  34092446.586 6  23265568.470    23265577.821          18.250
        17.500
  31789313.853 6  24770906.142 6  22174834.931    22174843.403          17.000
        20.750
  34919849.077 5  27200392.724 5  25016487.485    25016499.024           8.000
        10.750
   4393473.203 6   3416703.447 6  23891691.259    23891701.810          12.250
        12.750
   5039299.799 5   3918981.396 5  24490693.423    24490703.106          10.500
        10.750
  55589126.089 5  43314349.866 5  24530452.751    24530464.841           8.750
         9.000
 99  3  2 20 29  0.0050000  0  6G 2G 7G26G 4G 9G27
  43858634.512 6  34163630.154 6  23282952.431    23282961.739          18.250
        17.500
  31880627.236 6  24842059.424 6  22192211.017    22192219.638          17.000
        20.750
  35021914.589 5  27279924.250 5  25035910.431    25035921.903           8.000
        10.500
   4423233.501 6   3439893.376 6  23897354.509    23897364.872          12.250
        12.750
   5073737.819 5   3945816.249 5  24497246.751    24497256.770          10.250
        11.000
  55718255.126 5  43414969.796 5  24555025.267    24555037.669           8.750
         9.000
 99  3  2 20 29 15.0050000  0  6G 2G 7G26G 4G 9G27
  43950062.123 6  34234872.436 6  23300350.485    23300359.880          18.500
        17.500
  31972026.188 6  24913279.374 6  22209603.751    22209612.286          17.000
        20.500
  35124090.123 5  27359541.517 5  25055354.212    25055365.060           8.250
        10.500
   4453086.707 6   3463155.694 6  23903035.321    23903045.720          12.250
        13.000
   5108273.016 5   3972726.820 5  24503818.595    24503828.270          10.500
        11.000
  55847466.090 5  43515653.565 5  24579613.329    24579625.618           8.750
         8.750
 99  3  2 20 29 30.0050000  0  6G 2G 7G26G 4G 9G27
  44041566.270 6  34306174.358 6  23317763.204    23317772.548          18.500
        17.250
  32063511.150 6  24984566.353 6  22227012.790    22227021.282          17.000
        20.500
  35226378.317 5  27439246.551 5  25074818.806    25074829.376           8.000
        10.000
   4483038.749 6   3486495.029 6  23908734.868    23908745.173          12.250
        13.000
   5142905.120 5   3999712.916 5  24510408.798    24510418.454          10.500
        11.000
  55976759.276 5  43616401.390 5  24604216.915    24604229.384           8.500
         8.750
 99  3  2 20 29 45.0050000  0  6G 2G 7G26G 4G 9G27
  44133150.173 6  34377538.426 6  23335190.806    23335200.130          18.250
        17.000
  32155082.189 6  25055920.398 6  22244438.306    22244446.856          17.000
        20.500
  35328779.208 5  27519039.418 5  25094304.868    25094315.575           8.000
        10.000
   4513090.091 6   3509911.745 6  23914453.345    23914463.817          12.000
        13.000
   5177633.532 5   4026774.038 5  24517017.118    24517027.122          10.500
        11.000
  56106135.143 5  43717213.645 5  24628836.368    24628849.087           8.250
         9.000
 99  3  2 20 30  0.0050000  0  6G 2G 7G26G 4G 9G27
  44224814.596 6  34448965.237 6  23352634.063    23352643.259          18.250
        17.000
  32246738.766 6  25127341.104 6  22261880.048    22261888.634          17.000
        20.500
  35431288.908 5  27598917.050 5  25113812.173    25113822.903           8.000
        10.000
   4543238.938 6   3533404.414 6  23920190.306    23920200.794          12.000
        13.000
   5212453.404 5   4053906.447 5  24523643.204    24523652.978          10.250
        11.000
  56235594.707 5  43818091.114 5  24653471.985    24653484.302           8.500
         8.750
 99  3  2 20 30 15.0060000  0  6G 2G 7G26G 4G 9G27
  44316570.365 6  34520463.224 6  23370094.529    23370103.943          18.250
        17.000
  32338490.936 6  25198836.285 6  22279339.787    22279348.365          17.000
        20.750
  35533913.143 5  27678883.943 5  25133340.678    25133351.963           8.000
        10.250
   4573487.233 6   3556974.593 6  23925946.396    23925956.904          12.000
        13.000
   5247369.153 5   4081113.561 5  24530287.115    24530297.256          10.250
        11.000
  56365146.007 5  43919040.082 5  24678124.857    24678137.291           8.250
         8.750
 99  3  2 20 30 30.0060000  0  6G 2G 7G26G 4G 9G27
  44408397.693 6  34592016.975 6  23387568.654    23387578.025          18.000
        17.000
  32430326.737 6  25270396.641 6  22296815.725    22296824.217          17.000
        20.500
  35636636.962 5  27758928.428 5  25152888.350    25152899.721           8.000
        10.250
   4603828.180 6   3580616.964 6  23931719.967    23931730.264          12.000
        13.000
   5282370.184 5   4108387.124 5  24536948.029    24536957.865          10.500
        11.250
  56494767.990 5  44020044.108 5  24702791.045    24702803.779           8.250
         8.750
 99  3  2 20 30 45.0060000  0  6G 2G 7G26G 4G 9G27
  44500302.025 6  34663630.725 6  23405057.537    23405066.955          18.000
        17.000
  32522253.959 6  25342028.232 6  22314308.928    22314317.432          17.250
        20.750
  35739469.954 5  27839057.991 5  25172457.037    25172468.182           8.000
        10.500
   4634264.730 6   3604333.822 6  23937511.881    23937522.228          12.250
        13.000
   5317461.121 5   4135730.749 5  24543625.271    24543635.389          10.500
        11.250
  56624470.697 5  44121111.045 5  24727472.678    24727485.076           8.000
         8.750
 99  3  2 20 31  0.0060000  0  6G 2G 7G26G 4G 9G27
  44592280.832 6  34735302.511 6  23422560.561    23422570.010          17.750
        17.000
  32614275.959 6  25413733.677 6  22331820.186    22331828.533          17.250
        20.750
  35842410.171 5  27919271.102 5  25192046.295    25192056.971           8.000
        10.250
   4664794.149 6   3628123.053 6  23943321.295    23943331.631          12.250
        12.750
   5352643.297 5   4163145.459 5  24550320.240    24550329.978          10.500
        11.250
  56754255.438 5  44222241.910 5  24752170.092    24752182.600           8.000
         8.750
 99  3  2 20 31 15.0060000  0  6G 2G 7G26G 4G 9G27
  44684336.781 6  34807034.404 6  23440078.232    23440087.740          17.750
        17.000
  32706400.365 6  25485518.917 6  22349350.959    22349359.334          17.500
        21.000
  35945460.817 5  27999570.263 5  25211656.014    25211666.611           8.000
        10.250
   4695421.855 6   3651988.864 6  23949149.654    23949159.896          12.250
        12.750
   5387921.933 5   4190635.332 5  24557033.170    24557043.303          10.500
        11.250
  56884125.680 5  44323439.378 5  24776883.561    24776896.123           8.000
         8.750
 99  3  2 20 31 30.0060000  0  6G 2G 7G26G 4G 9G27
  44776459.602 6  34878818.408 6  23457608.490    23457618.127          17.750
        17.000
  32798619.886 6  25557378.269 6  22366899.748    22366908.100          17.500
        21.000
  36048608.784 5  28079945.252 5  25231284.186    25231295.471           7.750
        10.500
   4726132.633 6   3675919.405 6  23954993.584    23955003.709          12.500
        12.750
   5423285.278 5   4218191.228 5  24563762.881    24563772.615          10.500
        11.250
  57014069.303 5  44424694.053 5  24801611.311    24801623.791           8.000
         8.750
 99  3  2 20 31 45.0060000  0  6G 2G 7G26G 4G 9G27
  44868655.525 6  34950659.376 6  23475152.834    23475162.443          17.500
        17.000
  32890941.210 6  25629316.952 6  22384467.881    22384476.232          17.500
        21.000
  36151856.624 5  28160398.061 5  25250931.811    25250943.049           7.750
        10.250
   4756930.178 6   3699917.555 6  23960854.256    23960864.486          12.500
        12.750
   5458740.661 5   4245818.828 5  24570510.193    24570519.908          10.750
        11.250
  57144093.086 5  44526011.168 5  24826353.904    24826366.658           7.750
         8.750
 99  3  2 20 32  0.0060000  0  6G 2G 7G26G 4G 9G27
  44960927.940 6  35022559.944 6  23492711.568    23492721.225          17.500
        17.000
  32983370.228 6  25701339.555 6  22402056.670    22402065.018          17.500
        20.750
  36255207.589 5  28240931.229 5  25270599.131    25270609.818           7.750
        10.250
   4787816.551 6   3723984.919 6  23966731.607    23966741.768          12.500
        12.750
   5494295.792 5   4273524.163 5  24577275.881    24577285.541          10.750
        11.250
  57274205.876 5  44627397.645 5  24851113.756    24851126.295           7.750
         8.750
 99  3  2 20 32 15.0060000  0  6G 2G 7G26G 4G 9G27
  45053271.228 6  35094515.731 6  23510284.014    23510293.650          17.500
        17.000
  33075905.302 6  25773444.797 6  22419665.404    22419673.853          17.750
        21.000
  36358655.236 5  28321539.732 5  25290284.545    25290295.494           7.750
        10.000
   4818787.732 6   3748118.365 6  23972625.123    23972635.268          12.500
        12.750
   5529949.156 5   4301306.034 5  24584060.818    24584070.283          10.750
        11.500
  57404404.119 5  44728850.713 5  24875889.568    24875902.600           7.750
         8.750
 99  3  2 20 32 30.0060000  0  6G 2G 7G26G 4G 9G27
  45145685.053 6  35166526.489 6  23527869.771    23527879.377          17.500
        17.000
  33168547.007 6  25845633.122 6  22437294.631    22437303.021          17.750
        21.000
  36462201.121 5  28402224.796 5  25309988.584    25309999.674           7.750
        10.250
   4849845.186 6   3772319.032 6  23978535.115    23978545.279          12.500
        12.750
   5565703.366 5   4329166.495 5  24590864.248    24590874.072          10.750
        11.500
  57534689.539 5  44830371.697 5  24900682.162    24900695.143           7.500
         8.750
 99  3  2 20 32 45.0060000  0  6G 2G 7G26G 4G 9G27
  45238165.413 6  35238589.093 6  23545468.115    23545477.803          17.250
        16.750
  33261287.257 6  25917898.245 6  22454942.482    22454950.889          17.500
        21.000
  36565839.186 5  28482981.676 5  25329710.006    25329721.123           7.500
        10.000
   4880984.975 6   3796583.871 6  23984460.811    23984470.881          12.750
        12.750
   5601555.920 5   4357103.581 5  24597686.943    24597696.236          11.000
        11.250
  57665059.481 5  44931958.555 5  24925490.779    24925503.623           7.500
         8.750
 99  3  2 20 33  0.0060000  0  6G 2G 7G26G 4G 9G27
  45330718.303 6  35310708.214 6  23563080.326    23563089.865          17.250
        17.000
  33354127.618 6  25990241.368 6  22472609.412    22472617.896          17.500
        21.000
  36669571.650 5  28563812.128 5  25349449.982    25349460.670           7.500
        10.000
   4912208.128 6   3820913.658 6  23990402.209    23990412.334          12.750
        12.750
   5637509.221 5   4385119.178 5  24604528.396    24604537.857          11.000
        11.500
  57795514.484 5  45033611.684 5  24950315.959    24950328.709           7.500
         8.750
 99  3  2 20 33 15.0060000  0  6G 2G 7G26G 4G 9G27
  45423337.756 6  35382879.202 6  23580705.357    23580714.955          17.250
        16.750
  33447063.900 6  26062659.241 6  22490294.537    22490303.045          17.500
        21.000
  36773391.833 5  28644710.929 5  25369206.123    25369217.182           7.500
        10.000
   4943510.766 6   3845305.371 6  23996358.881    23996369.006          12.750
        12.500
   5673554.075 5   4413206.107 5  24611387.670    24611397.080          11.000
        11.750
  57926045.736 5  45135324.235 5  24975155.037    24975167.834           7.500
         8.750
 99  3  2 20 33 30.0060000  0  6G 2G 7G26G 4G 9G27
  45516028.956 6  35455106.096 6  23598343.982    23598353.709          17.250
        16.750
  33540096.135 6  26135151.884 6  22507997.959    22508006.451          17.500
        21.000
  36877301.984 5  28725679.827 5  25388979.592    25388990.760           7.500
        10.000
   4974896.853 6   3869762.121 6  24002331.568    24002341.518          12.750
        12.750
   5709692.288 5   4441365.795 5  24618264.607    24618274.455          11.000
        11.750
  58056655.683 5  45237098.103 5  25000009.646    25000022.377           7.500
         8.750
 99  3  2 20 33 45.0060000  0  6G 2G 7G26G 4G 9G27
  45608788.602 6  35527386.319 6  23615995.498    23616005.092          17.500
        16.750
  33633219.877 6  26207715.828 6  22525718.850    22525727.416          17.250
        21.000
  36981298.659 5  28806716.144 5  25408769.795    25408781.084           7.500
        10.000
   5006364.466 6   3894282.395 6  24008319.428    24008329.650          12.750
        12.750
   5745920.701 5   4469595.751 5  24625158.381    24625167.920          11.000
        11.750
  58187340.955 4  45338930.673 5  25024877.959    25024890.978           7.250
         8.750
 99  3  2 20 34  0.0060000  0  6G 2G 7G26G 4G 9G27
  45701614.592 6  35599718.245 6  23633659.764    23633669.264          17.500
        16.750
  33726433.385 6  26280349.721 6  22543456.787    22543465.365          17.250
        21.000
  37085380.468 5  28887818.819 5  25428575.631    25428586.607           7.500
        10.000
   5037917.194 6   3918868.994 6  24014323.717    24014333.768          13.000
        12.750
   5782238.899 5   4497895.682 5  24632069.615    24632079.564          11.250
        11.750
  58318100.373 4  45440821.009 5  25049760.951    25049774.006           7.250
         8.750
 99  3  2 20 34 15.0060000  0  6G 2G 7G26G 4G 9G27
  45794508.408 6  35672103.020 6  23651336.967    23651346.451          17.500
        16.750
  33819736.366 6  26353053.332 6  22561211.631    22561220.217          17.250
        21.000
  37189549.438 5  28968989.393 5  25448398.459    25448409.666           7.500
        10.000
   5069557.287 6   3943523.672 6  24020344.623    24020354.689          13.000
        12.750
   5818645.498 5   4526264.498 5  24638997.615    24639007.068          11.250
        11.750
  58448932.725 4  45542768.174 5  25074657.436    25074670.361           7.250
         8.750
 99  3  2 20 34 30.0060000  0  6G 2G 7G26G 4G 9G27
  45887468.461 6  35744539.412 6  23669026.678    23669036.228          17.500
        16.750
  33913123.074 6  26425822.184 6  22578982.600    22578991.115          17.250
        20.500
  37293802.708 5  29050225.659 5  25468237.389    25468248.580           7.750
        10.000
   5101285.445 6   3968246.964 6  24026382.311    24026392.197          13.000
        12.750
   5855136.364 5   4554698.974 6  24645941.584    24645951.139          11.500
        12.000
  58579830.619 4  45644766.412 5  25099566.709    25099579.553           7.250
         8.750
 99  3  2 20 34 45.0060000  0  6G 2G 7G26G 4G 9G27
  45980496.022 6  35817028.395 6  23686729.115    23686738.678          17.750
        16.750
  34006591.382 6  26498654.624 6  22596768.771    22596777.279          17.250
        20.500
  37398142.415 5  29131529.264 5  25488092.545    25488103.514           7.750
        10.000
   5133102.469 6   3993039.506 6  24032436.818    24032446.744          13.250
        12.750
   5891711.172 5   4583198.846 6  24652901.248    24652910.900          11.250
        12.250
  58710792.973 4  45746814.881 5  25124487.740    25124501.143           7.250
         8.750
 99  3  2 20 35  0.0060000  0  6G 2G 7G26G 4G 9G27
  46073588.142 6  35889567.693 6  23704444.186    23704453.654          17.500
        16.750
  34100139.816 6  26571549.493 6  22614570.568    22614579.045          17.250
        20.500
  37502567.320 5  29212899.280 5  25507963.732    25507975.303           7.500
        10.000
   5165007.535 6   4017900.650 6  24038508.209    24038518.018          13.250
        12.750
   5928366.367 5   4611761.364 6  24659876.521    24659885.936          11.500
        12.250
  58841814.516 4  45848909.468 5  25149420.498    25149433.994           7.250
         8.750
 99  3  2 20 35 15.0060000  0  6G 2G 7G26G 4G 9G27
  46166748.406 6  35962160.093 6  23722172.037    23722181.510          17.750
        16.750
  34193775.086 6  26644512.029 6  22632388.889    22632397.256          17.250
        20.500
  37607084.695 5  29294341.341 5  25527853.014    25527864.217           7.750
        10.000
   5197008.442 6   4042836.490 6  24044597.623    24044607.439          13.500
        13.000
   5965105.781 5   4640389.510 6  24666867.709    24666877.619          11.500
        12.250
  58972899.501 4  45951053.491 5  25174365.068    25174378.373           7.000
         8.750
 99  3  2 20 35 30.0070000  0  6G 2G 7G26G 4G 9G27
  46259981.734 6  36034809.422 6  23739913.761    23739923.210          17.750
        16.750
  34287497.706 6  26717542.639 6  22650223.722    22650232.116          17.250
        20.500
  37711697.787 5  29375857.981 5  25547760.511    25547771.327           7.750
         9.750
   5229107.986 6   4067849.173 6  24050706.128    24050715.921          13.250
        13.000
   6001933.230 5   4669086.265 6  24673875.808    24673885.409          11.500
        12.250
  59104059.119 4  46053255.675 5  25199324.284    25199337.714           7.250
         8.750
 99  3  2 20 35 45.0070000  0  6G 2G 7G26G 4G 9G27
  46353275.163 6  36107505.582 6  23757666.831    23757676.487          17.500
        16.750
  34381294.020 6  26790630.668 6  22668072.409    22668080.811          17.000
        20.250
  37816393.897 5  29457439.320 5  25567683.394    25567694.206           7.750
         9.750
   5261300.571 6   4092934.363 6  24056831.979    24056841.979          13.250
        13.000
   6038846.046 5   4697849.531 6  24680900.269    24680909.811          11.750
        12.250
  59235276.713 4  46155503.022 5  25224294.362    25224307.151           7.250
         8.500
 99  3  2 20 36  0.0070000  0  6G 2G 7G26G 4G 9G27
  46446633.304 6  36180252.162 6  23775432.292    23775441.940          17.500
        16.750
  34475168.191 6  26863779.358 6  22685936.144    22685944.433          17.000
        20.250
  37921178.029 5  29539089.240 5  25587623.073    25587634.085           7.500
         9.750
   5293588.943 6   4118094.194 6  24062976.183    24062986.022          13.250
        13.000
   6075844.839 5   4726679.782 6  24687940.956    24687950.538          11.750
        12.250
  59366559.608 4  46257801.253 5  25249277.050    25249289.894           7.250
         8.500
 99  3  2 20 36 15.0070000  0  6G 2G 7G26G 4G 9G27
  46540060.397 6  36253052.471 6  23793210.847    23793220.519          17.500
        16.750
  34569122.999 6  26936990.892 6  22703815.261    22703823.612          17.000
        20.250
  38026054.362 5  29620811.008 5  25607579.917    25607592.386           7.500
         9.750
   5325977.419 6   4143332.021 6  24069139.456    24069149.245          13.250
        13.250
   6112934.590 5   4755580.924 6  24694998.831    24695008.479          11.750
        12.250
  59497913.215 4  46360154.587 5  25274272.808    25274285.870           7.250
         8.500
 99  3  2 20 36 30.0070000  0  6G 2G 7G26G 4G 9G27
  46633562.186 6  36325910.987 6  23811003.589    23811013.210          17.500
        16.750
  34663164.852 6  27010270.252 6  22721710.917    22721719.194          17.000
        20.250
  38131031.319 5  29702611.175 5  25627556.995    25627568.671           7.500
         9.750
   5358471.358 6   4168652.037 6  24075322.729    24075332.608          13.250
        13.250
   6150123.073 6   4784558.999 6  24702075.448    24702084.890          12.000
        12.250
  59629342.294 4  46462566.726 5  25299282.815    25299295.999           7.250
         8.250
 99  3  2 20 36 45.0070000  0  6G 2G 7G26G 4G 9G27
  46727131.143 6  36398821.844 6  23828809.190    23828818.847          17.250
        16.750
  34757291.052 6  27083615.334 6  22739622.479    22739630.839          17.000
        20.250
  38236102.216 5  29784484.550 5  25647550.901    25647562.058           7.500
         9.500
   5391065.050 6   4194049.780 6  24081525.026    24081534.886          13.250
        13.500
   6187404.988 6   4813609.864 6  24709170.089    24709179.628          12.250
        12.500
  59760839.420 4  46565031.899 5  25324305.886    25324319.323           7.250
         8.250
 99  3  2 20 37  0.0070000  0  6G 2G 7G26G 4G 9G27
  46820771.885 6  36471788.632 6  23846628.315    23846637.995          17.250
        16.750
  34851511.403 6  27157033.781 6  22757552.019    22757560.421          17.000
        20.250
  38341272.955 5  29866435.728 5  25667564.940    25667575.362           7.500
         9.500
   5423764.980 6   4219530.304 6  24087747.753    24087757.550          13.250
        13.500
   6224788.227 6   4842739.700 6  24716283.862    24716293.280          12.250
        12.500
  59892413.954 5  46667557.380 5  25349344.058    25349357.229           7.500
         8.250
 99  3  2 20 37 15.0070000  0  6G 2G 7G26G 4G 9G27
  46914479.120 6  36544807.234 6  23864460.323    23864470.065          17.000
        16.750
  34945822.291 6  27230522.780 6  22775498.644    22775507.069          17.000
        20.250
  38446539.419 5  29948461.482 5  25687596.104    25687607.468           7.500
         9.500
   5456569.375 6   4245092.236 6  24093990.104    24094000.015          13.250
        13.750
   6262267.313 6   4871944.217 6  24723415.815    24723425.155          12.250
        12.500
  60024062.471 4  46770140.511 5  25374396.151    25374409.425           7.250
         8.250
 99  3  2 20 37 30.0070000  0  6G 2G 7G26G 4G 9G27
  47008252.015 6  36617876.995 6  23882304.769    23882314.632          17.000
        16.750
  35040222.055 6  27304081.031 6  22793462.354    22793470.913          16.750
        20.500
  38551897.313 5  30030558.490 5  25707644.995    25707656.452           7.750
         9.500
   5489475.734 6   4270733.613 6  24100252.011    24100261.808          13.250
        14.000
   6299842.897 6   4901223.918 6  24730566.354    24730575.819          12.500
        12.500
  60155784.540 5  46872780.953 5  25399461.784    25399475.315           7.500
         8.000
 99  3  2 20 37 45.0070000  0  6G 2G 7G26G 4G 9G27
  47102094.055 6  36691000.643 6  23900162.425    23900172.144          17.000
        16.500
  35134717.486 6  27377713.825 6  22811444.308    22811452.940          16.750
        20.500
  38657348.590 5  30112728.260 5  25727712.026    25727723.116           7.750
         9.500
   5522486.030 6   4296455.990 6  24106533.675    24106543.378          13.250
        14.250
   6337520.886 6   4930583.420 6  24737736.292    24737745.444          12.500
        12.500
  60287582.390 4  46975480.446 5  25424542.440    25424555.671           7.250
         8.000
 99  3  2 20 38  0.0070000  0  6G 2G 7G26G 4G 9G27
  47196010.386 6  36764182.169 6  23918034.050    23918043.761          17.250
        16.500
  35229315.801 6  27451426.793 6  22829445.862    22829454.452          17.000
        20.500
  38762898.922 5  30194975.225 5  25747797.815    25747808.683           7.750
         9.500
   5555607.919 6   4322265.313 6  24112836.362    24112846.104          13.250
        14.250
   6375307.554 6   4960027.590 6  24744926.683    24744936.054          12.500
        12.250
  60419457.990 5  47078240.526 5  25449638.042    25449650.897           7.500
         8.000
 99  3  2 20 38 15.0070000  0  6G 2G 7G26G 4G 9G27
  47289993.895 6  36837416.051 6  23935918.526    23935928.335          17.500
        16.500
  35324012.693 6  27525216.573 6  22847466.089    22847474.686          17.000
        20.750
  38868541.851 5  30277294.324 5  25767900.487    25767911.761           7.750
         9.250
   5588835.425 6   4348156.942 6  24119159.339    24119169.179          13.250
        14.500
   6413198.020 6   4989552.666 6  24752137.339    24752146.265          12.750
        12.500
  60551406.744 5  47181057.608 5  25474746.534    25474759.843           7.500
         8.000
 99  3  2 20 38 30.0070000  0  6G 2G 7G26G 4G 9G27
  47384035.707 6  36910695.364 6  23953814.198    23953823.874          17.250
        16.500
  35418804.043 6  27599079.960 6  22865504.151    22865512.753          17.000
        20.750
  38974274.151 5  30359683.069 5  25788021.003    25788032.034           7.750
         9.500
   5622159.277 6   4374123.645 6  24125500.503    24125510.448          13.250
        14.750
   6451186.496 6   5019154.107 6  24759365.940    24759375.311          12.750
        12.500
  60683421.109 4  47283925.810 5  25499868.628    25499882.155           7.250
         8.250
 99  3  2 20 38 45.0070000  0  6G 2G 7G26G 4G 9G27
  47478144.444 6  36984026.819 6  23971722.573    23971732.351          17.500
        16.250
  35513699.010 6  27673024.078 6  22883561.886    22883570.507          16.750
        20.750
  39080100.871 5  30442145.395 5  25808159.519    25808170.651           7.750
         9.500
   5655588.897 6   4400172.760 6  24131861.808    24131871.667          13.500
        14.750
   6489282.214 6   5048839.111 6  24766615.112    24766624.370          12.500
        12.500
  60815508.405 4  47386850.848 5  25525003.894    25525016.995           7.250
         8.000
 99  3  2 20 39  0.0070000  0  6G 2G 7G26G 4G 9G27
  47572324.303 6  37057413.697 6  23989644.534    23989654.210          17.500
        16.250
  35608696.562 6  27747048.138 6  22901639.519    22901648.179          17.000
        21.000
  39186021.819 5  30524681.149 5  25828315.698    25828326.550           7.750
         9.500
   5689126.600 6   4426306.095 6  24138243.847    24138253.737          13.500
        14.750
   6527484.787 6   5078607.384 6  24773884.753    24773894.159          12.500
        12.500
  60947672.253 4  47489835.518 5  25550153.651    25550167.206           7.250
         8.250
 99  3  2 20 39 15.0070000  0  6G 2G 7G26G 4G 9G27
  47666578.937 6  37130858.843 6  24007580.597    24007590.206          17.500
        16.250
  35703793.451 6  27821149.605 6  22919735.870    22919744.554          17.000
        20.750
  39292038.630 5  30607291.599 5  25848489.995    25848501.089           7.750
         9.500
   5722774.443 6   4452525.257 6  24144646.839    24144656.757          13.500
        14.750
   6565796.925 6   5108461.016 6  24781175.323    24781184.679          12.500
        12.500
  61079916.511 4  47592882.861 5  25575319.409    25575332.647           7.250
         8.250
 99  3  2 20 39 30.0070000  0  6G 2G 7G26G 4G 9G27
  47760907.614 6  37204361.693 6  24025530.659    24025540.147          17.500
        16.250
  35798984.514 6  27895324.456 6  22937850.128    22937858.761          17.000
        21.000
  39398146.839 5  30689973.259 5  25868681.581    25868692.862           7.500
         9.750
   5756527.187 6   4478826.158 6  24151069.659    24151079.479          13.750
        15.000
   6604214.380 6   5138396.723 6  24788486.011    24788495.304          12.750
        12.500
  61212233.525 4  47695986.891 5  25600498.104    25600511.772           6.750
         8.000
 99  3  2 20 39 45.0070000  0  6G 2G 7G26G 4G 9G27
  47855313.798 6  37277924.927 6  24043495.683    24043505.354          17.500
        16.000
  35894268.973 6  27969572.074 6  22955982.151    22955990.702          17.000
        21.000
  39504346.116 5  30772725.884 5  25888890.659    25888902.136           7.500
         9.750
   5790383.594 6   4505207.838 6  24157512.456    24157522.116          14.000
        14.750
   6642740.662 6   5168417.225 6  24795817.386    24795826.647          12.750
        12.500
  61344622.320 4  47799146.862 5  25625690.972    25625705.073           6.750
         8.250
 99  3  2 20 40  0.0070000  0  6G 2G 7G26G 4G 9G27
  47949790.827 6  37351543.371 6  24061474.042    24061483.690          17.500
        16.000
  35989635.830 6  28043883.903 6  22974129.831    22974138.534          17.000
        21.000
  39610632.393 5  30855546.297 5  25909116.479    25909127.011           7.500
         9.250
   5824337.921 6   4531665.809 6  24163973.597    24163983.280          14.000
        14.750
   6681368.224 6   5198516.659 6  24803167.698    24803176.866          12.500
        12.250
  61477076.555 4  47902357.810 5  25650897.120    25650910.202           6.750
         8.250
 99  3  2 20 40 15.0070000  0  6G 2G 7G26G 4G 9G27
  48044344.917 6  37425221.855 6  24079467.065    24079476.655          17.500
        16.000
  36085087.503 6  28118261.825 6  22992293.769    22992302.487          17.000
        21.250
  39717012.578 4  30938439.895 5  25929359.331    25929371.093           7.250
         9.750
   5858394.678 6   4558203.604 6  24170454.347    24170464.120          14.000
        14.750
   6720099.061 6   5228696.559 6  24810538.011    24810547.472          12.500
        12.500
  61609603.787 4  48005625.638 5  25676116.034    25676129.417           6.750
         8.250
 99  3  2 20 40 30.0080000  0  6G 2G 7G26G 4G 9G27
  48138977.673 6  37498961.640 6  24097474.945    24097484.504          17.250
        15.750
  36180623.736 6  28192705.637 6  23010473.711    23010482.352          17.250
        21.250
  39823488.269 4  31021407.910 5  25949620.953    25949633.422           7.000
         9.750
   5892548.607 6   4584817.113 6  24176953.609    24176963.211          14.250
        14.750
   6758929.544 6   5258954.100 6  24817926.883    24817936.191          12.500
        12.500
  61742206.969 4  48108952.665 5  25701349.461    25701362.887           6.500
         8.250
 99  3  2 20 40 45.0080000  0  6G 2G 7G26G 4G 9G27
  48233687.927 6  37572761.818 6  24115497.805    24115507.391          17.250
        15.750
  36276236.325 6  28267208.938 6  23028668.258    23028676.910          17.000
        21.250
  39930050.346 4  31104443.219 5  25969900.023    25969910.894           7.250
         9.500
   5926806.216 6   4611511.410 6  24183472.586    24183482.293          14.250
        15.000
   6797862.689 6   5289291.640 6  24825335.687    24825345.160          12.500
        12.500
  61874873.768 4  48212329.245 5  25726595.281    25726608.578           6.500
         8.000
 99  3  2 20 41  0.0080000  0  6G 2G 7G26G 4G 9G27
  48328477.717 6  37646623.968 6  24133535.625    24133545.410          17.000
        15.750
  36371921.200 6  28341768.574 6  23046876.453    23046885.094          17.000
        21.250
  40036696.256 4  31187543.879 5  25990193.727    25990205.137           7.000
         9.500
   5961165.024 6   4638284.562 6  24190010.734    24190020.367          14.250
        15.000
   6836893.094 6   5319704.974 6  24832762.789    24832771.918          12.500
        12.500
  62007604.967 4  48315756.005 5  25751853.430    25751867.187           6.250
         8.250
 99  3  2 20 41 15.0080000  0  6G 2G 7G26G 4G 9G27
  48423346.363 6  37720547.558 6  24151588.633    24151598.336          17.000
        15.750
  36467677.997 6  28416384.256 6  23065098.375    23065107.215          17.000
        21.250
  40143427.116 4  31270710.717 5  26010503.312    26010515.516           6.750
         9.500
   5995623.967 6   4665135.736 6  24196567.992    24196577.687          14.250
        15.000
   6876021.701 6   5350194.823 6  24840208.625    24840217.859          12.500
        12.500
  62140400.237 4  48419232.702 5  25777124.078    25777137.211           6.250
         8.250
 99  3  2 20 41 30.0080000  0  6G 2G 7G26G 4G 9G27
  48518293.910 6  37794532.637 6  24169656.422    24169666.125          17.000
        15.750
  36563513.500 6  28491061.257 6  23083335.305    23083343.977          17.000
        21.500
  40250244.744 4  31353945.179 5  26030830.477    26030842.023           6.750
         9.250
   6030185.762 6   4692067.061 6  24203144.875    24203154.461          14.250
        15.000
   6915253.504 6   5380765.082 6  24847674.117    24847683.473          12.500
        12.500
  62273259.126 4  48522758.961 5  25802405.758    25802419.289           6.250
         8.000
 99  3  2 20 41 45.0080000  0  6G 2G 7G26G 4G 9G27
  48613318.069 6  37868577.408 6  24187738.953    24187748.617          17.000
        15.500
  36659426.214 6  28565798.427 6  23101586.828    23101595.609          17.000
        21.500
  40357147.265 4  31437245.772 5  26051174.047    26051185.711           7.250
         9.500
   6064847.191 6   4719076.017 6  24209740.758    24209750.398          14.250
        15.000
   6954585.733 6   5411413.592 6  24855158.727    24855168.309          12.500
        12.500
  62406179.587 3  48626333.202 5  25827699.875    25827713.594           6.000
         8.000
 99  3  2 20 42  0.0080000  0  6G 2G 7G26G 4G 9G27
  48708413.792 6  37942677.945 6  24205835.086    24205844.840          17.000
        15.750
  36755413.456 6  28640593.669 6  23119852.633    23119861.434          17.250
        21.500
  40464131.700 4  31520610.206 5  26071531.953    26071543.574           6.750
         9.000
   6099608.704 6   4746162.957 6  24216355.516    24216365.176          14.250
        15.000
   6994016.263 6   5442138.706 6  24862662.250    24862671.707          12.500
        13.000
  62539161.354 3  48729955.199 5  25853004.914    25853019.238           6.000
         8.000
 99  3  2 20 42 15.0080000  0  6G 2G 7G26G 4G 9G27
  48803580.795 6  38016834.026 6  24223944.820    24223954.473          17.000
        15.500
  36851478.432 6  28715449.482 6  23138133.062    23138141.844          17.250
        21.500
  40571198.440 4  31604038.776 5  26091906.086    26091917.137           7.000
         9.000
   6134474.484 6   4773331.149 6  24222990.289    24222999.992          14.250
        14.750
   7033545.977 6   5472941.107 6  24870184.508    24870194.184          12.750
        13.000
  62672206.626 3  48833626.689 5  25878322.773    25878337.488           6.000
         8.250
 99  3  2 20 42 30.0080000  0  6G 2G 7G26G 4G 9G27
  48898818.328 6  38091045.062 6  24242067.961    24242077.574          17.000
        15.500
  36947624.122 6  28790368.192 6  23156429.078    23156437.867          17.250
        21.500
  40678342.261 4  31687527.411 5  26112295.680    26112307.434           7.250
         9.250
   6169445.414 6   4800581.273 6  24229645.039    24229654.555          14.000
        14.750
   7073175.063 6   5503820.935 6  24877725.609    24877735.234          12.750
        13.000
  62805311.019 3  48937344.262 5  25903652.148    25903666.480           6.000
         8.000
 99  3  2 20 42 45.0080000  0  6G 2G 7G26G 4G 9G27
  48994130.305 6  38165314.111 6  24260205.242    24260214.805          17.000
        15.250
  37043854.578 6  28865352.947 6  23174741.203    23174749.980          17.000
        21.500
  40785564.877 4  31771077.439 5  26132698.422    26132709.988           6.750
         9.000
   6204527.848 6   4827918.285 6  24236320.914    24236330.598          14.000
        15.000
   7112909.775 6   5534783.075 6  24885286.930    24885296.156          12.750
        12.750
  62938474.219 3  49041107.628 5  25928992.344    25929006.496           6.000
         7.750
 99  3  2 20 43  0.0080000  0  6G 2G 7G26G 4G 9G27
  49089516.479 6  38239640.982 6  24278356.664    24278366.242          17.000
        15.250
  37140169.376 6  28940403.433 6  23193069.367    23193078.148          17.250
        21.500
  40892864.684 4  31854687.623 5  26153117.625    26153128.812           7.250
         9.000
   6239720.384 6   4855341.086 6  24243017.711    24243027.336          14.000
        14.750
   7152750.011 6   5565827.434 6  24892868.328    24892877.848          13.000
        13.000
  63071694.286 4  49144915.324 5  25954342.859    25954358.199           6.500
         8.000
 99  3  2 20 43 15.0080000  0  6G 2G 7G26G 4G 9G27
  49184980.240 6  38314028.300 6  24296522.797    24296532.434          17.000
        15.250
  37236575.491 6  29015525.070 6  23211414.797    23211423.586          17.250
        21.500
  41000247.794 4  31938362.716 5  26173552.242    26173563.230           7.250
         9.000
   6275026.184 6   4882852.152 6  24249736.273    24249745.812          14.000
        14.750
   7192702.833 6   5596959.526 6  24900471.367    24900480.379          13.000
        13.000
  63204978.266 4  49248772.842 5  25979706.523    25979720.062           6.500
         7.750
 99  3  2 20 43 30.0080000  0  6G 2G 7G26G 4G 9G27
  49280519.674 6  38388474.587 6  24314703.391    24314713.051          17.000
        15.250
  37333072.161 6  29090717.270 6  23229777.680    23229786.387          17.500
        21.500
  41107712.371 4  32022101.280 5  26194001.883    26194013.496           6.750
         9.250
   6310442.237 6   4910449.125 6  24256475.516    24256485.277          14.000
        15.000
   7232766.579 6   5628178.046 6  24908095.484    24908104.492          13.250
        13.000
  63338324.416 4  49352678.775 5  26005081.469    26005095.691           6.500
         7.500
 99  3  2 20 43 45.0080000  0  6G 2G 7G26G 4G 9G27
  49376137.467 6  38462981.927 6  24332898.977    24332908.543          17.000
        15.250
  37429659.623 6  29165980.215 6  23248157.625    23248166.363          17.500
        21.750
  41215260.849 4  32105905.236 5  26214467.391    26214478.797           6.750
         8.750
   6345970.833 6   4938133.792 6  24263236.359    24263245.969          14.000
        15.000
   7272939.218 6   5659481.434 6  24915739.883    24915749.035          13.500
        13.250
  63471733.838 4  49456634.001 5  26030469.062    26030483.312           6.500
         7.750
 99  3  2 20 44  0.0080000  0  6G 2G 7G26G 4G 9G27
  49471838.948 6  38537554.482 6  24351110.469    24351120.027          17.250
        15.250
  37526340.375 6  29241315.856 6  23266555.367    23266564.066          17.500
        21.750
  41322897.118 4  32189777.591 5  26234949.687    26234961.105           7.000
         8.750
   6381618.214 6   4965911.014 6  24270019.797    24270029.394          14.000
        15.000
   7313225.567 6   5690873.408 6  24923406.008    24923415.242          13.500
        13.250
  63605210.793 4  49560641.869 5  26055869.133    26055883.082           6.500
         7.750
 99  3  2 20 44 15.0080000  0  6G 2G 7G26G 4G 9G27
  49567616.842 6  38612186.582 6  24369336.359    24369345.922          17.500
        15.250
  37623109.044 6  29316719.996 6  23284969.750    23284978.605          17.500
        21.500
  41430613.669 4  32273712.506 5  26255448.289    26255459.113           7.000
         8.750
   6417379.793 6   4993777.218 6  24276824.898    24276834.598          14.000
        15.000
   7353620.628 6   5722350.099 6  24931093.102    24931102.215          13.500
        13.250
  63738748.097 4  49664696.761 5  26081280.594    26081293.973           6.500
         7.500
 99  3  2 20 44 30.0080000  0  6G 2G 7G26G 4G 9G27
  49663475.329 6  38686881.476 6  24387577.664    24387587.160          17.500
        15.250
  37719966.630 6  29392193.426 6  23303401.203    23303409.992          17.500
        21.500
  41538411.925 4  32357711.088 5  26275961.422    26275973.367           6.750
         9.250
   6453256.515 6   5021733.148 6  24283652.141    24283661.590          14.000
        15.000
   7394125.160 6   5753912.091 6  24938800.922    24938810.039          13.500
        13.250
  63872345.943 4  49768798.818 5  26106703.227    26106717.066           6.250
         7.500
 99  3  2 20 44 45.0080000  0  6G 2G 7G26G 4G 9G27
  49759412.600 6  38761637.770 6  24405833.961    24405843.586          17.500
        15.250
  37816908.879 6  29467732.830 6  23321848.648    23321857.453          17.500
        21.500
  41646291.149 4  32441772.762 5  26296489.562    26296501.680           6.750
         9.000
   6489243.439 6   5049774.954 6  24290500.242    24290509.793          14.000
        15.000
   7434735.526 6   5785556.555 6  24946528.680    24946537.609          13.500
        13.250
  64006000.378 4  49872944.972 5  26132136.992    26132151.437           6.500
         7.500
 99  3  2 20 45  0.0080000  0  6G 2G 7G26G 4G 9G27
  49855426.761 6  38836453.970 6  24424104.922    24424114.566          17.500
        15.250
  37913931.857 6  29543335.136 6  23340311.625    23340320.293          17.500
        21.500
  41754252.274 4  32525898.240 5  26317034.508    26317045.609           7.000
         9.000
   6525337.712 6   5077900.405 6  24297368.578    24297378.125          14.250
        15.250
   7475449.720 6   5817281.925 6  24954276.305    24954285.289          13.750
        13.500
  64139714.102 4  49977137.326 5  26157581.937    26157596.031           6.500
         7.250
